Sigfox identifier Datetime Temperature Humidity SNR
003B8455 2019-03-26 13:51:19 -40 0 19.4
003B8455 2019-03-26 13:49:42 -39.6 0 19.2
003B8455 2019-03-26 13:46:05 -40 0 18.9
003B8455 2019-03-26 13:42:16 -40 0 18.6
003B8455 2019-03-26 13:40:47 -39.7 0 18.3
003B8455 2019-03-26 12:24:52 -40 0 18.1
003B8455 2019-03-26 12:23:31 -40 0 17.5
003B8455 2019-03-26 12:22:07 -39.9 0 16.9
003B8455 2019-03-26 12:09:47 -39.9 0 17
003B8455 2019-03-26 12:08:01 -39.9 0 16.6
003B8455 2019-03-26 12:06:52 -39.9 0 16.6
003B8455 2019-03-26 12:05:38 -39.7 0 16.4
003B8455 2019-03-25 14:26:04 -40 0 16
003B8455 2019-03-25 14:23:35 -40 0 16.5
003B8455 2019-03-25 14:22:47 -39.8 0 16.9
003B8455 2019-03-25 14:03:52 53.4 3 17.4
003B8455 2019-03-25 14:01:19 53.4 0 17.3
003B8455 2019-03-25 13:59:06 53.4 0 17.3
003B8455 2019-03-25 13:57:30 -40 0 17.3
003B8455 2019-03-25 13:56:38 -39.9 0 17.1
003B8455 2019-03-25 13:54:27 -40 0 17.2
003B8455 2019-03-25 13:53:27 -39.9 0 17.3
003B8455 2019-03-25 13:52:27 548.8 0 17.3
003B8455 2019-03-25 13:48:11 779.3 0 17.8
003B8455 2019-03-25 13:46:42 -39.9 0 18.1
003B8455 2019-03-25 13:45:55 -39.9 0 18.2
003B8455 2019-03-25 13:44:57 -40 0 18.2
003B8455 2019-03-25 13:43:56 -39.6 0 18.4
003B8455 2019-03-25 13:42:51 -39.6 0 18.5
003B8455 2019-03-25 13:41:49 -39.3 0 18.6
003B8455 2019-03-25 13:40:02 -38.9 0 18.3
003B8455 2019-03-25 13:39:10 -38.5 0 18.6
003B8455 2019-03-25 13:38:15 -38.1 0 18.8
003B8455 2019-03-25 13:36:53 -37.9 0 18.8
003B8455 2019-03-25 13:35:43 -38.2 0 19
003B8455 2019-03-25 13:28:39 -40 0 19.4
003B8455 2019-03-25 13:27:50 -39.8 0 19.4
003B8455 2019-03-25 13:19:40 -40 0 19.5
003B8455 2019-03-25 13:17:43 -40 0 19.3
003B8455 2019-03-25 13:16:28 37 27 19.2
003B8455 2019-03-25 13:14:09 37 27 19.1
003B8455 2019-03-25 13:11:54 -39.9 0 19.1
003B8455 2019-03-25 13:11:10 -40 0 19.3
003B8455 2019-03-25 13:10:23 -40 0 19.3
003B8455 2019-03-25 13:09:17 -39.9 0 19.4
003B8455 2019-03-25 13:08:23 -39.9 0 19.4
003B8455 2019-03-25 13:03:52 -14.2 1 19.2
003B8455 2019-03-25 13:01:55 192.2 9 19.3
003B8455 2019-03-25 12:59:36 192.2 27 19.2
003B8455 2019-03-25 12:57:55 653.9 1 19.2
003B8455 2019-03-25 12:52:35 -39.9 0 19.1
003B8455 2019-03-25 12:51:51 -40 0 19
003B8455 2019-03-25 12:51:04 -40 0 18.8
003B8455 2019-03-25 12:50:11 -39.6 0 18.9
003B8455 2019-03-25 12:49:10 -39.3 0 18.6
003B8455 2019-03-25 12:48:16 -39 0 18.7
003B8455 2019-03-25 12:47:13 -38.9 0 18.6
003B8455 2019-03-25 12:46:11 -38.3 0 18.6
003B8455 2019-03-25 12:43:36 -40 0 20.4
003B8455 2019-03-25 12:42:08 -39.3 0 20.4
003B8455 2019-03-25 12:40:47 -14.7 0 20.1
003B8455 2019-03-25 12:39:30 -38.9 0 20.2
003B8455 2019-03-25 12:17:47 20.8 23 20.1
003B8455 2019-03-25 11:45:47 20.8 23 20.2
003B8455 2019-03-25 11:13:46 20.8 24 20.2
003B8455 2019-03-25 10:41:45 20.7 24 20.3
003B8455 2019-03-25 10:09:44 20.6 24 20.4
003B8455 2019-03-25 09:37:42 20.4 23 20.3
003B8455 2019-03-25 09:05:40 20.3 23 20.5
003B8455 2019-03-25 08:33:38 20.3 23 20.7
003B8455 2019-03-25 08:01:39 20.3 23 20.7
003B8455 2019-03-25 07:29:35 20.3 23 20.6
003B8455 2019-03-25 06:57:32 20.3 23 20.5
003B8455 2019-03-25 06:25:30 20.3 23 20.6
003B8455 2019-03-25 05:53:28 20.3 23 20.6
003B8455 2019-03-25 05:21:27 20.3 23 20.8
003B8455 2019-03-25 04:49:25 20.3 23 21.2
003B8455 2019-03-25 04:17:23 20.3 23 21.4
003B8455 2019-03-25 03:45:22 20.4 23 21.5
003B8455 2019-03-25 03:13:21 20.3 23 21.6
003B8455 2019-03-25 02:41:20 20.3 23 21.7
003B8455 2019-03-25 02:09:19 20.4 23 21.8
003B8455 2019-03-25 01:37:17 20.4 23 22
003B8455 2019-03-25 01:05:14 20.4 23 20.8
003B8455 2019-03-25 00:33:12 20.5 23 20.8
003B8455 2019-03-25 00:01:09 20.5 23 21
003B8455 2019-03-24 23:29:09 20.6 23 21
003B8455 2019-03-24 22:57:07 20.6 23 21
003B8455 2019-03-24 22:25:06 20.7 23 21.1
003B8455 2019-03-24 21:53:04 20.7 23 21.1
003B8455 2019-03-24 21:21:03 20.7 23 21.1
003B8455 2019-03-24 20:48:28 20.8 23 21
003B8455 2019-03-24 20:16:26 20.9 23 20.8
003B8455 2019-03-24 19:44:25 20.9 23 20.7
003B8455 2019-03-24 19:12:23 21 23 20.9
003B8455 2019-03-24 18:40:22 21 23 21
003B8455 2019-03-24 18:08:22 21 23 21
003B8455 2019-03-24 17:36:21 21 23 21
003B8455 2019-03-24 17:04:21 21 23 20.9
003B8455 2019-03-24 16:32:23 21 23 20.8
003B8455 2019-03-24 16:00:19 20.9 23 20.4
003B8455 2019-03-24 15:28:16 20.8 23 20.4
003B8455 2019-03-24 14:56:14 20.6 24 20.4
003B8455 2019-03-24 14:24:13 20.4 24 20.7
003B8455 2019-03-24 13:52:11 20.3 24 20.8
003B8455 2019-03-24 13:20:10 20.3 24 20.8
003B8455 2019-03-24 12:48:09 20.3 23 20.4
003B8455 2019-03-24 12:16:06 20.3 23 20.5
003B8455 2019-03-24 11:44:04 20.3 23 20.5
003B8455 2019-03-24 11:12:01 20.3 24 20.3
003B8455 2019-03-24 10:39:58 20.2 23 20.3
003B8455 2019-03-24 10:07:55 20.2 23 20.2
003B8455 2019-03-24 09:35:52 20.2 23 20.3
003B8455 2019-03-24 09:03:49 20.2 23 20.2
003B8455 2019-03-24 08:31:47 20.2 23 20.2
003B8455 2019-03-24 07:59:42 20.2 23 20.4
003B8455 2019-03-24 07:27:40 20.2 23 20.4
003B8455 2019-03-24 06:55:37 20.2 23 20.5
003B8455 2019-03-24 06:23:34 20.2 23 20.8
003B8455 2019-03-24 05:51:30 20.3 23 20.7
003B8455 2019-03-24 05:19:26 20.3 23 21.9
003B8455 2019-03-24 04:47:22 20.3 23 21.9
003B8455 2019-03-24 04:15:19 20.3 23 22.1
003B8455 2019-03-24 03:43:16 20.2 23 22.1
003B8455 2019-03-24 03:11:13 20.3 23 22
003B8455 2019-03-24 02:39:12 20.3 23 22.2
003B8455 2019-03-24 02:07:11 20.3 23 22
003B8455 2019-03-24 01:35:10 20.3 23 22.1
003B8455 2019-03-24 01:03:08 20.3 23 22.8
003B8455 2019-03-24 00:31:06 20.3 23 22.7
003B8455 2019-03-23 23:59:04 20.3 23 22.8
003B8455 2019-03-23 23:27:02 20.3 23 23
003B8455 2019-03-23 22:55:00 20.3 23 22.9
003B8455 2019-03-23 22:22:58 20.3 23 22.9
003B8455 2019-03-23 21:50:57 20.3 23 23
003B8455 2019-03-23 21:18:56 20.3 22 23.1
003B8455 2019-03-23 20:46:54 20.3 22 23.2
003B8455 2019-03-23 20:14:52 20.4 22 23.3
003B8455 2019-03-23 19:42:50 20.4 22 23.4
003B8455 2019-03-23 19:10:49 20.4 22 23.4
003B8455 2019-03-23 18:38:46 20.4 22 23.3
003B8455 2019-03-23 18:06:12 20.4 22 23.5
003B8455 2019-03-23 17:34:10 20.4 22 23.4
003B8455 2019-03-23 17:02:08 20.4 22 23.5
003B8455 2019-03-23 16:30:05 20.4 21 22.7
003B8455 2019-03-23 15:58:01 20.4 21 22.6
003B8455 2019-03-23 15:25:59 20.4 21 22.4
003B8455 2019-03-23 14:53:57 20.4 21 22.4
003B8455 2019-03-23 14:21:54 20.4 21 22.4
003B8455 2019-03-23 13:49:52 20.4 21 22.3
003B8455 2019-03-23 13:17:50 20.4 21 22.3
003B8455 2019-03-23 12:45:49 20.4 21 22.2
003B8455 2019-03-23 12:13:47 20.4 21 21.1
003B8455 2019-03-23 11:41:46 20.4 21 21
003B8455 2019-03-23 11:09:44 20.4 21 20.9
003B8455 2019-03-23 10:37:42 20.4 20 20.5
003B8455 2019-03-23 10:05:40 20.4 20 20.6
003B8455 2019-03-23 09:33:38 20.4 20 20.6
003B8455 2019-03-23 09:01:35 20.4 20 20.5
003B8455 2019-03-23 08:29:32 20.5 20 20.5
003B8455 2019-03-23 07:57:30 20.5 20 20.4
003B8455 2019-03-23 07:25:29 20.5 20 20.4
003B8455 2019-03-23 06:53:27 20.5 20 20.2
003B8455 2019-03-23 06:21:24 20.5 20 20.3
003B8455 2019-03-23 05:49:21 20.5 20 20.4
003B8455 2019-03-23 05:17:18 20.5 20 20.4
003B8455 2019-03-23 04:45:15 20.5 20 20.1
003B8455 2019-03-23 04:13:13 20.6 19 19.7
003B8455 2019-03-23 03:41:10 20.6 19 19.8
003B8455 2019-03-23 03:09:08 20.6 19 19.8
003B8455 2019-03-23 02:37:07 20.6 19 19.7
003B8455 2019-03-23 02:05:05 20.7 19 21.2
003B8455 2019-03-23 01:33:02 20.7 19 21.5
003B8455 2019-03-23 01:01:01 20.8 19 21.5
003B8455 2019-03-23 00:29:00 20.9 19 21.6
003B8455 2019-03-22 23:56:58 20.9 18 21.8
003B8455 2019-03-22 23:24:56 21 18 22.8
003B8455 2019-03-22 22:52:53 21 18 22.8
003B8455 2019-03-22 22:20:52 21.1 18 23
003B8455 2019-03-22 21:48:52 21.2 18 22.9
003B8455 2019-03-22 21:16:48 21.3 18 23
003B8455 2019-03-22 20:44:47 21.4 17 23.1
003B8455 2019-03-22 20:12:46 21.3 17 23.1
003B8455 2019-03-22 19:40:45 21.4 17 23
003B8455 2019-03-22 19:08:44 21.3 16 23.2
003B8455 2019-03-22 18:36:43 21.3 16 23.2
003B8455 2019-03-22 18:04:42 21.3 15 23.3
003B8455 2019-03-22 17:32:41 21.3 15 23.3
003B8455 2019-03-22 17:00:39 21.3 14 23.4
003B8455 2019-03-22 16:28:37 21.3 14 23.3
003B8455 2019-03-22 15:56:34 21.2 14 23.9
003B8455 2019-03-22 15:23:59 21.1 15 24.1
003B8455 2019-03-22 14:51:57 21 15 24.2
003B8455 2019-03-22 14:19:54 20.8 16 24.2
003B8455 2019-03-22 13:47:51 20.7 17 24.3
003B8455 2019-03-22 13:15:49 20.7 17 23.6
003B8455 2019-03-22 12:43:47 20.7 18 23.5
003B8455 2019-03-22 12:11:45 20.7 18 23.7
003B8455 2019-03-22 11:39:43 20.7 18 23.8
003B8455 2019-03-22 11:07:39 20.7 19 23.8
003B8455 2019-03-22 10:35:37 20.7 20 23.2
003B8455 2019-03-22 10:03:35 20.7 20 23.3
003B8455 2019-03-22 09:31:32 20.6 20 23.2
003B8455 2019-03-22 08:59:29 20.6 21 23.3
003B8455 2019-03-22 08:27:27 20.6 22 23.3
003B8455 2019-03-22 07:55:25 20.6 22 23.3
003B8455 2019-03-22 07:23:22 20.6 23 23.3
003B8455 2019-03-22 06:51:19 20.6 23 23.4
003B8455 2019-03-22 06:19:14 20.6 23 23.3
003B8455 2019-03-22 05:47:10 20.6 24 23.3
003B8455 2019-03-22 05:15:06 20.7 24 23.4
003B8455 2019-03-22 04:43:04 20.6 24 23.3
003B8455 2019-03-22 04:11:01 20.6 25 23.1
003B8455 2019-03-22 03:39:00 20.7 25 23.2
003B8455 2019-03-22 03:06:58 20.7 26 22.4
003B8455 2019-03-22 02:34:55 20.7 26 22.3
003B8455 2019-03-22 02:02:52 20.7 26 22.3
003B8455 2019-03-22 01:30:49 20.7 27 22.1
003B8455 2019-03-22 00:58:46 20.7 27 22.1
003B8455 2019-03-22 00:26:43 20.8 28 22.1
003B8455 2019-03-21 23:54:40 20.8 28 22.2
003B8455 2019-03-21 23:22:37 20.8 28 22.2
003B8455 2019-03-21 22:50:34 20.8 28 22.1
003B8455 2019-03-21 22:18:31 20.8 28 22
003B8455 2019-03-21 21:46:28 20.8 28 21.7
003B8455 2019-03-21 21:14:25 20.9 28 21.5
003B8455 2019-03-21 20:42:21 20.9 28 21.3
003B8455 2019-03-21 20:10:19 20.9 28 21.1
003B8455 2019-03-21 19:38:16 20.9 28 21
003B8455 2019-03-21 19:06:12 21 28 20.9
003B8455 2019-03-21 18:34:09 21 28 21
003B8455 2019-03-21 18:02:07 21.1 28 20.9
003B8455 2019-03-21 17:30:05 21.2 28 20.8
003B8455 2019-03-21 16:58:01 21.2 27 20.7
003B8455 2019-03-21 16:25:59 21.2 28 20.4
003B8455 2019-03-21 15:53:56 21.4 28 20.1
003B8455 2019-03-21 15:21:53 21.4 29 20.3
003B8455 2019-03-21 14:49:51 21.3 29 20.6
003B8455 2019-03-21 14:17:48 21.2 27 20.6
003B8455 2019-03-21 13:45:46 21.1 27 20.7
003B8455 2019-03-21 13:13:45 21 26 20.8
003B8455 2019-03-21 12:41:10 20.9 26 20.5
003B8455 2019-03-21 12:09:09 20.9 25 20.6
003B8455 2019-03-21 11:37:07 20.8 25 20.4
003B8455 2019-03-21 11:05:06 20.8 25 20.3
003B8455 2019-03-21 10:33:04 20.7 25 20.5
003B8455 2019-03-21 10:01:02 20.7 25 20.3
003B8455 2019-03-21 09:29:00 20.7 24 20.4
003B8455 2019-03-21 08:56:58 20.6 24 20.6
003B8455 2019-03-21 08:24:57 20.6 24 20.8
003B8455 2019-03-21 07:52:55 20.6 24 21
003B8455 2019-03-21 07:20:55 20.6 25 21.2
003B8455 2019-03-21 06:48:50 20.6 25 21.3
003B8455 2019-03-21 06:16:47 20.6 25 21.2
003B8455 2019-03-21 05:44:45 20.6 25 21.2
003B8455 2019-03-21 05:12:42 20.6 25 21.3
003B8455 2019-03-21 04:40:39 20.6 25 21.3
003B8455 2019-03-21 04:08:36 20.6 25 21.4
003B8455 2019-03-21 03:36:34 20.6 25 21.5
003B8455 2019-03-21 03:04:33 20.6 25 21.4
003B8455 2019-03-21 02:32:31 20.6 25 21.1
003B8455 2019-03-21 02:00:28 20.6 25 20.9
003B8455 2019-03-21 01:28:26 20.6 26 20.7
003B8455 2019-03-21 00:56:22 20.6 26 20.7
003B8455 2019-03-21 00:24:20 20.6 26 20.4
003B8455 2019-03-20 23:52:19 20.6 26 20.5
003B8455 2019-03-20 23:20:17 20.7 26 20.6
003B8455 2019-03-20 22:48:14 20.7 26 20.4
003B8455 2019-03-20 22:16:11 20.7 26 20.7
003B8455 2019-03-20 21:44:10 20.7 26 20.7
003B8455 2019-03-20 21:12:08 20.7 26 20.3
003B8455 2019-03-20 20:40:07 20.7 26 20.2
003B8455 2019-03-20 20:08:05 20.7 26 19.9
003B8455 2019-03-20 19:36:03 20.8 26 21.2
003B8455 2019-03-20 19:03:58 20.8 26 21.3
003B8455 2019-03-20 18:31:54 20.8 26 21.1
003B8455 2019-03-20 17:59:47 20.9 26 20.9
003B8455 2019-03-20 17:27:42 20.9 26 22
003B8455 2019-03-20 16:55:36 20.9 25 22
003B8455 2019-03-20 16:23:30 21 25 22.2
003B8455 2019-03-20 15:51:25 21.1 26 22.2
003B8455 2019-03-20 15:19:19 21.1 26 22.2
003B8455 2019-03-20 14:47:14 21.1 25 22.2
003B8455 2019-03-20 14:15:10 21.1 25 22.1
003B8455 2019-03-20 13:43:06 21.1 25 22.3
003B8455 2019-03-20 13:11:01 21 25 22.5
003B8455 2019-03-20 12:38:56 20.9 25 22.5
003B8455 2019-03-20 12:06:52 20.9 25 22.6
003B8455 2019-03-20 11:34:50 20.9 25 22.6
003B8455 2019-03-20 11:02:48 20.9 25 22.7
003B8455 2019-03-20 10:30:45 20.8 24 22.7
003B8455 2019-03-20 09:58:10 20.6 23 22.6
003B8455 2019-03-20 09:26:06 20.6 23 22.7
003B8455 2019-03-20 08:54:03 20.5 24 22.8
003B8455 2019-03-20 08:21:59 20.5 24 23
003B8455 2019-03-20 07:49:55 20.5 25 23.2
003B8455 2019-03-20 07:17:50 20.5 26 22.5
003B8455 2019-03-20 06:45:46 20.5 26 22.5
003B8455 2019-03-20 06:13:41 20.5 26 22.5
003B8455 2019-03-20 05:41:38 20.5 26 22.5
003B8455 2019-03-20 05:09:36 20.5 26 21.5
003B8455 2019-03-20 04:37:36 20.6 26 21.4
003B8455 2019-03-20 04:05:33 20.6 27 21.2
003B8455 2019-03-20 03:33:31 20.6 27 21.1
003B8455 2019-03-20 03:01:28 20.6 27 21.5
003B8455 2019-03-20 02:29:26 20.6 27 21.5
003B8455 2019-03-20 01:57:22 20.6 27 21.5
003B8455 2019-03-20 01:25:19 20.6 27 21.4
003B8455 2019-03-20 00:53:15 20.6 27 21.1
003B8455 2019-03-20 00:21:11 20.7 28 21.1
003B8455 2019-03-19 23:49:07 20.6 28 21.2
003B8455 2019-03-19 23:17:03 20.7 28 21.1
003B8455 2019-03-19 22:45:00 20.7 28 20.9
003B8455 2019-03-19 22:12:56 20.7 28 20.9
003B8455 2019-03-19 21:40:53 20.7 28 20.9
003B8455 2019-03-19 21:08:50 20.8 28 21.2
003B8455 2019-03-19 20:36:47 20.8 28 21.1
003B8455 2019-03-19 20:04:44 20.8 29 21.2
003B8455 2019-03-19 19:32:42 20.9 29 21.1
003B8455 2019-03-19 19:00:38 20.9 29 21.1
003B8455 2019-03-19 18:28:35 21 29 20.9
003B8455 2019-03-19 17:56:32 21.1 29 20.9
003B8455 2019-03-19 17:24:28 21.3 30 20.6
003B8455 2019-03-19 16:52:24 21.2 30 20.6
003B8455 2019-03-19 16:20:20 21.2 31 20.6
003B8455 2019-03-19 15:48:15 21.2 30 20.7
003B8455 2019-03-19 15:16:11 21.1 29 20.8
003B8455 2019-03-19 14:44:08 21.2 29 21.2
003B8455 2019-03-19 14:12:05 21.2 30 21.2
003B8455 2019-03-19 13:40:00 21.1 29 21.1
003B8455 2019-03-19 13:07:56 21.1 29 21.2
003B8455 2019-03-19 12:35:52 21.1 29 21.4
003B8455 2019-03-19 12:03:48 21 30 21.4
003B8455 2019-03-19 11:31:45 20.9 30 21.4
003B8455 2019-03-19 10:59:42 20.9 30 21.4
003B8455 2019-03-19 10:27:39 20.8 29 21.6
003B8455 2019-03-19 09:55:35 20.7 28 21.7
003B8455 2019-03-19 09:23:33 20.6 28 21.8
003B8455 2019-03-19 08:51:29 20.6 27 21.9
003B8455 2019-03-19 08:19:25 20.6 27 22.9
003B8455 2019-03-19 07:47:20 20.5 27 22.7
003B8455 2019-03-19 07:14:45 20.5 27 22.6
003B8455 2019-03-19 06:42:41 20.5 27 22.5
003B8455 2019-03-19 06:10:37 20.6 27 22.5
003B8455 2019-03-19 05:38:34 20.6 27 22.3
003B8455 2019-03-19 05:06:30 20.6 27 22.1
003B8455 2019-03-19 04:34:26 20.6 27 22.1
003B8455 2019-03-19 04:02:23 20.6 27 22.2
003B8455 2019-03-19 03:30:20 20.6 27 22.1
003B8455 2019-03-19 02:58:17 20.6 27 22.1
003B8455 2019-03-19 02:26:12 20.6 27 22
003B8455 2019-03-19 01:54:09 20.6 27 21.6
003B8455 2019-03-19 01:22:05 20.6 27 21.6
003B8455 2019-03-19 00:50:01 20.6 27 21.3
003B8455 2019-03-19 00:17:57 20.6 27 21
003B8455 2019-03-18 23:45:54 20.6 27 20.9
003B8455 2019-03-18 23:13:51 20.6 27 20.9
003B8455 2019-03-18 22:41:48 20.6 27 21
003B8455 2019-03-18 22:09:45 20.6 27 21.4
003B8455 2019-03-18 21:37:42 20.6 27 21.3
003B8455 2019-03-18 21:05:38 20.7 27 21.3
003B8455 2019-03-18 20:33:34 20.7 27 21.6
003B8455 2019-03-18 20:01:29 20.7 27 21.5
003B8455 2019-03-18 19:29:24 20.7 27 20.6
003B8455 2019-03-18 18:57:19 20.7 26 20.7
003B8455 2019-03-18 18:25:16 20.8 26 21
003B8455 2019-03-18 17:53:13 20.9 27 21
003B8455 2019-03-18 17:21:10 20.9 27 21.1
003B8455 2019-03-18 16:49:07 20.9 27 21.1
003B8455 2019-03-18 16:17:05 20.9 27 21
003B8455 2019-03-18 15:45:01 20.9 27 21.2
003B8455 2019-03-18 15:13:00 20.9 27 21.3
003B8455 2019-03-18 14:40:56 20.8 27 21.4
003B8455 2019-03-18 14:08:54 20.8 27 21.7
003B8455 2019-03-18 13:36:51 20.7 27 21.9
003B8455 2019-03-18 13:04:49 20.8 27 21.8
003B8455 2019-03-18 12:32:45 20.7 27 22.2
003B8455 2019-03-18 12:00:44 20.7 27 22.3
003B8455 2019-03-18 11:28:41 20.7 27 22.3
003B8455 2019-03-18 10:56:39 20.7 27 22.3
003B8455 2019-03-18 10:24:38 20.7 27 22.4
003B8455 2019-03-18 09:52:33 20.7 27 22.3
003B8455 2019-03-18 09:20:29 20.6 27 22.2
003B8455 2019-03-18 08:48:26 20.6 27 22
003B8455 2019-03-18 08:16:25 20.5 27 21.9
003B8455 2019-03-18 07:44:20 20.6 27 21.7
003B8455 2019-03-18 07:12:17 20.6 27 21.4
003B8455 2019-03-18 06:40:15 20.6 27 21.2
003B8455 2019-03-18 06:08:13 20.6 27 20.9
003B8455 2019-03-18 05:36:11 20.6 27 20.7
003B8455 2019-03-18 05:04:08 20.6 27 20.5
003B8455 2019-03-18 04:31:33 20.6 27 20.3
003B8455 2019-03-18 03:59:30 20.5 27 20
003B8455 2019-03-18 03:27:29 20.6 27 20.2
003B8455 2019-03-18 02:55:28 20.6 27 20.3
003B8455 2019-03-18 02:23:26 20.6 27 20.2
003B8455 2019-03-18 01:51:24 20.5 27 20.4
003B8455 2019-03-18 01:19:23 20.6 26 20.2
003B8455 2019-03-18 00:47:20 20.6 26 20
003B8455 2019-03-18 00:15:18 20.5 26 20.2
003B8455 2019-03-17 23:43:16 20.6 26 19.7
003B8455 2019-03-17 23:11:14 20.6 26 19.6
003B8455 2019-03-17 22:39:13 20.6 26 19.7
003B8455 2019-03-17 22:07:08 20.6 26 20
003B8455 2019-03-17 21:35:06 20.6 26 19.9
003B8455 2019-03-17 21:03:02 20.5 26 20
003B8455 2019-03-17 20:31:02 20.6 26 20.2
003B8455 2019-03-17 19:58:59 20.6 26 19.8
003B8455 2019-03-17 19:26:56 20.6 26 19.9
003B8455 2019-03-17 18:54:53 20.6 26 20
003B8455 2019-03-17 18:22:53 20.6 26 19.9
003B8455 2019-03-17 17:50:51 20.6 26 20.4
003B8455 2019-03-17 17:18:49 20.6 26 20.6
003B8455 2019-03-17 16:46:47 20.6 26 20.9
003B8455 2019-03-17 16:14:45 20.6 26 21.1
003B8455 2019-03-17 15:42:44 20.6 26 21.4
003B8455 2019-03-17 15:10:42 20.6 26 21.5
003B8455 2019-03-17 14:38:39 20.6 26 21.6
003B8455 2019-03-17 14:06:34 20.6 26 21.4
003B8455 2019-03-17 13:34:28 20.6 26 21.2
003B8455 2019-03-17 13:02:22 20.6 26 21.3
003B8455 2019-03-17 12:30:16 20.6 26 21
003B8455 2019-03-17 11:58:11 20.6 26 21.1
003B8455 2019-03-17 11:26:06 20.6 26 21.1
003B8455 2019-03-17 10:54:02 20.6 26 21.1
003B8455 2019-03-17 10:21:58 20.6 26 21.3
003B8455 2019-03-17 09:49:53 20.6 26 21.4
003B8455 2019-03-17 09:17:50 20.6 26 21.4
003B8455 2019-03-17 08:45:45 20.6 26 21.3
003B8455 2019-03-17 08:13:39 20.6 26 21.3
003B8455 2019-03-17 07:41:35 20.6 26 21.4
003B8455 2019-03-17 07:09:31 20.6 26 21.3
003B8455 2019-03-17 06:37:24 20.6 26 21.4
003B8455 2019-03-17 06:05:19 20.6 27 21.5
003B8455 2019-03-17 05:33:16 20.6 27 21.6
003B8455 2019-03-17 05:01:09 20.6 27 21.8
003B8455 2019-03-17 04:29:04 20.6 27 21.5
003B8455 2019-03-17 03:57:00 20.6 27 21.2
003B8455 2019-03-17 03:24:56 20.6 27 21.1
003B8455 2019-03-17 02:52:52 20.6 27 21.1
003B8455 2019-03-17 02:20:49 20.6 27 20.8
003B8455 2019-03-17 01:48:13 20.6 27 21.3
003B8455 2019-03-17 01:16:09 20.6 27 21.6
003B8455 2019-03-17 00:44:06 20.6 27 21.8
003B8455 2019-03-17 00:12:04 20.6 27 21.8
003B8455 2019-03-16 23:40:00 20.6 27 21.9
003B8455 2019-03-16 23:07:58 20.6 27 21.8
003B8455 2019-03-16 22:35:55 20.6 27 21.8
003B8455 2019-03-16 22:03:53 20.6 27 21.7
003B8455 2019-03-16 21:31:50 20.6 27 21.7
003B8455 2019-03-16 20:59:48 20.6 26 21.6
003B8455 2019-03-16 20:27:45 20.6 26 21.7
003B8455 2019-03-16 19:55:41 20.6 26 21.7
003B8455 2019-03-16 19:23:38 20.6 26 21.6
003B8455 2019-03-16 18:51:35 20.6 26 21.6
003B8455 2019-03-16 18:19:32 20.6 26 21.8
003B8455 2019-03-16 17:47:30 20.6 26 21.7
003B8455 2019-03-16 17:15:27 20.6 26 21.8
003B8455 2019-03-16 16:43:26 20.6 26 21.8
003B8455 2019-03-16 16:11:24 20.6 26 21.9
003B8455 2019-03-16 15:39:21 20.6 26 22
003B8455 2019-03-16 15:07:18 20.6 26 22.1
003B8455 2019-03-16 14:35:18 20.6 26 22.3
003B8455 2019-03-16 14:03:12 20.6 26 22.1
003B8455 2019-03-16 13:31:07 20.6 26 22.2
003B8455 2019-03-16 12:59:04 20.6 26 22.1
003B8455 2019-03-16 12:27:00 20.6 26 22.1
003B8455 2019-03-16 11:54:55 20.6 26 21.8
003B8455 2019-03-16 11:22:50 20.6 26 21.8
003B8455 2019-03-16 10:50:47 20.6 26 21.8
003B8455 2019-03-16 10:18:44 20.6 26 21.8
003B8455 2019-03-16 09:46:41 20.7 26 21.9
003B8455 2019-03-16 09:14:38 20.6 26 22
003B8455 2019-03-16 08:42:34 20.6 26 22
003B8455 2019-03-16 08:10:32 20.6 26 21.8
003B8455 2019-03-16 07:38:29 20.7 26 21.8
003B8455 2019-03-16 07:06:26 20.7 26 21.7
003B8455 2019-03-16 06:34:22 20.6 26 21.6
003B8455 2019-03-16 06:02:18 20.6 26 22.1
003B8455 2019-03-16 05:30:14 20.7 26 22.1
003B8455 2019-03-16 04:58:11 20.6 26 22
003B8455 2019-03-16 04:26:05 20.6 26 22.1
003B8455 2019-03-16 03:54:02 20.6 26 21.9
003B8455 2019-03-16 03:21:57 20.6 26 22.7
003B8455 2019-03-16 02:49:53 20.6 26 22.7
003B8455 2019-03-16 02:17:48 20.7 26 22.9
003B8455 2019-03-16 01:45:44 20.6 26 23
003B8455 2019-03-16 01:13:40 20.7 26 22.7
003B8455 2019-03-16 00:41:37 20.7 26 22.8
003B8455 2019-03-16 00:09:34 20.6 27 22.6
003B8455 2019-03-15 23:37:31 20.7 27 22.4
003B8455 2019-03-15 23:04:52 20.7 27 22.4
003B8455 2019-03-15 22:32:47 20.7 27 22.4
003B8455 2019-03-15 22:00:41 20.7 27 22.5
003B8455 2019-03-15 21:28:36 20.7 27 22.4
003B8455 2019-03-15 20:56:31 20.7 27 22.2
003B8455 2019-03-15 20:24:26 20.8 27 22.6
003B8455 2019-03-15 19:52:22 20.8 27 22.7
003B8455 2019-03-15 19:20:17 20.7 27 23
003B8455 2019-03-15 18:48:14 20.7 26 23.2
003B8455 2019-03-15 18:16:11 20.7 26 23.3
003B8455 2019-03-15 17:44:09 20.8 26 23.4
003B8455 2019-03-15 17:12:06 20.7 26 23
003B8455 2019-03-15 16:40:03 20.8 26 23
003B8455 2019-03-15 16:07:59 20.7 26 23
003B8455 2019-03-15 15:35:54 20.8 26 23.2
003B8455 2019-03-15 15:03:48 20.8 26 23.4
003B8455 2019-03-15 14:31:43 20.8 26 22.7
003B8455 2019-03-15 13:59:38 20.8 26 22.6
003B8455 2019-03-15 13:27:33 20.8 27 22.5
003B8455 2019-03-15 12:55:28 20.8 27 22.5
003B8455 2019-03-15 12:23:24 20.8 26 22.7
003B8455 2019-03-15 11:51:18 20.8 26 22.9
003B8455 2019-03-15 11:19:14 20.7 26 22.8
003B8455 2019-03-15 10:47:09 20.7 26 23.1
003B8455 2019-03-15 10:15:03 20.7 26 23.2
003B8455 2019-03-15 09:42:59 20.7 26 23.2
003B8455 2019-03-15 09:10:54 20.7 26 23.1
003B8455 2019-03-15 08:38:48 20.6 25 23.2
003B8455 2019-03-15 08:06:41 20.6 25 23.2
003B8455 2019-03-15 07:34:36 20.6 25 23.3
003B8455 2019-03-15 07:02:32 20.6 24 23
003B8455 2019-03-15 06:30:27 20.6 24 22.8
003B8455 2019-03-15 05:58:21 20.6 24 22.8
003B8455 2019-03-15 05:26:17 20.7 24 22.5
003B8455 2019-03-15 04:54:12 20.6 24 22.3
003B8455 2019-03-15 04:22:10 20.6 24 22.1
003B8455 2019-03-15 03:50:09 20.7 24 23
003B8455 2019-03-15 03:18:04 20.6 24 22.8
003B8455 2019-03-15 02:46:02 20.6 24 22.8
003B8455 2019-03-15 02:13:57 20.6 24 22.5
003B8455 2019-03-15 01:41:53 20.7 24 22.2
003B8455 2019-03-15 01:09:49 20.7 24 22.1
003B8455 2019-03-15 00:37:46 20.7 24 22.2
003B8455 2019-03-15 00:05:44 20.7 24 22.2
003B8455 2019-03-14 23:33:41 20.7 24 21.9
003B8455 2019-03-14 23:01:39 20.7 24 21.7
003B8455 2019-03-14 22:29:36 20.7 24 21.5
003B8455 2019-03-14 21:57:32 20.8 24 21.5
003B8455 2019-03-14 21:25:29 20.8 24 21.3
003B8455 2019-03-14 20:53:26 20.8 24 21.1
003B8455 2019-03-14 20:20:50 20.8 24 21.2
003B8455 2019-03-14 19:48:47 20.8 24 21.1
003B8455 2019-03-14 19:16:46 20.8 24 20.9
003B8455 2019-03-14 18:44:45 20.9 24 20.7
003B8455 2019-03-14 18:12:43 20.9 24 20.8
003B8455 2019-03-14 17:40:41 20.9 24 21
003B8455 2019-03-14 17:08:39 20.9 24 20.7
003B8455 2019-03-14 16:36:36 20.9 24 21
003B8455 2019-03-14 16:04:34 20.9 24 21.3
003B8455 2019-03-14 15:32:32 20.9 24 21.5
003B8455 2019-03-14 15:00:29 21 24 20.4
003B8455 2019-03-14 14:28:26 20.9 24 20.5
003B8455 2019-03-14 13:56:25 21 25 20.8
003B8455 2019-03-14 13:24:21 20.9 25 20.9
003B8455 2019-03-14 12:52:20 20.9 24 20.9
003B8455 2019-03-14 12:20:17 20.8 24 21
003B8455 2019-03-14 11:48:15 20.8 24 20.8
003B8455 2019-03-14 11:16:12 20.8 24 20.6
003B8455 2019-03-14 10:44:11 20.8 23 20.7
003B8455 2019-03-14 10:12:10 20.8 23 20.7
003B8455 2019-03-14 09:40:10 20.7 23 20.6
003B8455 2019-03-14 09:08:08 20.7 22 20.7
003B8455 2019-03-14 04:51:55 20.6 19 21.5
003B8455 2019-03-14 04:19:53 20.6 19 21.2
003B8455 2019-03-14 03:47:51 20.6 19 21.3
003B8455 2019-03-14 03:15:50 20.6 18 21
003B8455 2019-03-14 02:43:48 20.6 18 22
003B8455 2019-03-14 02:11:50 20.6 18 22.8
003B8455 2019-03-14 01:39:49 20.6 18 22.6
003B8455 2019-03-14 01:07:46 20.6 18 22.5
003B8455 2019-03-14 00:35:44 20.6 17 22.3
003B8455 2019-03-14 00:03:44 20.6 17 22.2
003B8455 2019-03-13 23:31:43 20.6 17 22.2
003B8455 2019-03-13 22:59:42 20.6 17 22.2
003B8455 2019-03-13 22:27:38 20.7 17 22.1
003B8455 2019-03-13 21:55:38 20.7 17 22.1
003B8455 2019-03-13 21:23:34 20.7 17 22.1
003B8455 2019-03-13 20:51:33 20.7 17 22.1
003B8455 2019-03-13 20:19:32 20.7 16 22.1
003B8455 2019-03-13 19:47:31 20.7 16 22.2
003B8455 2019-03-13 19:15:29 20.7 16 21.1
003B8455 2019-03-13 18:43:27 20.8 16 21
003B8455 2019-03-13 18:11:25 20.8 16 21.1
003B8455 2019-03-13 17:38:50 20.9 16 21.2
003B8455 2019-03-13 17:06:48 21 16 21.3
003B8455 2019-03-13 16:34:45 21 16 21.4
003B8455 2019-03-13 16:02:41 21 17 21.5
003B8455 2019-03-13 15:30:38 20.9 16 21.5
003B8455 2019-03-13 14:58:35 20.9 16 21.6
003B8455 2019-03-13 14:26:34 20.9 16 21.6
003B8455 2019-03-13 13:54:32 20.8 16 20.4
003B8455 2019-03-13 13:22:30 20.8 16 18.7
003B8455 2019-03-13 12:50:29 20.8 16 18.8
003B8455 2019-03-13 12:18:28 20.8 16 19
003B8455 2019-03-13 11:46:26 20.8 16 19.6
003B8455 2019-03-13 11:14:24 20.8 17 19.6
003B8455 2019-03-13 10:42:21 20.7 16 19.7
003B8455 2019-03-13 10:10:20 20.7 17 19.7
003B8455 2019-03-13 09:38:17 20.6 16 19.8
003B8455 2019-03-13 09:06:15 20.4 14 20.2
003B8455 2019-03-13 08:34:13 20.3 14 20.3
003B8455 2019-03-13 08:02:12 20.3 14 20.5
003B8455 2019-03-13 07:30:11 20.3 15 20.8
003B8455 2019-03-13 06:58:09 20.4 15 20.9
003B8455 2019-03-13 06:26:06 20.4 15 20.8
003B8455 2019-03-13 05:54:04 20.4 15 21
003B8455 2019-03-13 05:22:01 20.4 15 21.2
003B8455 2019-03-13 04:49:59 20.4 15 21.2
003B8455 2019-03-13 04:17:57 20.4 15 21.1
003B8455 2019-03-13 03:45:55 20.4 15 21.1
003B8455 2019-03-13 03:13:53 20.4 16 21.1
003B8455 2019-03-13 02:41:49 20.5 16 21.2
003B8455 2019-03-13 02:09:46 20.5 16 22.3
003B8455 2019-03-13 01:37:42 20.5 16 22.1
003B8455 2019-03-13 01:05:39 20.5 16 22.1
003B8455 2019-03-13 00:33:36 20.5 16 22
003B8455 2019-03-13 00:01:33 20.5 16 22
003B8455 2019-03-12 23:29:30 20.5 16 22
003B8455 2019-03-12 22:57:27 20.5 16 21.9
003B8455 2019-03-12 22:25:25 20.6 16 21.7
003B8455 2019-03-12 21:53:22 20.6 16 22.6
003B8455 2019-03-12 21:21:21 20.6 16 23.4
003B8455 2019-03-12 20:49:18 20.6 16 24.1
003B8455 2019-03-12 20:17:16 20.6 16 24.7
003B8455 2019-03-12 19:45:14 20.6 16 25.1
003B8455 2019-03-12 19:13:10 20.6 16 25.6
003B8455 2019-03-12 18:41:06 20.7 16 25.9
003B8455 2019-03-12 18:09:03 20.7 16 26.2
003B8455 2019-03-12 17:37:01 20.7 16 26.6
003B8455 2019-03-12 17:04:59 20.8 16 26.9
003B8455 2019-03-12 16:32:56 20.8 16 27.2
003B8455 2019-03-12 16:00:54 20.8 16 27.4
003B8455 2019-03-12 15:28:52 20.7 16 27.7
003B8455 2019-03-12 14:56:15 20.7 16 28.2
003B8455 2019-03-12 14:24:10 20.7 16 28.5
003B8455 2019-03-12 13:52:08 20.7 16 28.7
003B8455 2019-03-12 13:20:03 20.7 16 28.7
003B8455 2019-03-12 12:48:00 20.7 16 28.9
003B8455 2019-03-12 12:15:58 20.6 16 29.1
003B8455 2019-03-12 11:43:57 20.6 16 29.3
003B8455 2019-03-12 11:11:56 20.6 15 29.5
003B8455 2019-03-12 10:39:54 20.5 15 29.5
003B8455 2019-03-12 10:07:52 20.5 15 29.7
003B8455 2019-03-12 09:35:50 20.4 15 29.8
003B8455 2019-03-12 09:03:47 20.4 15 29.8
003B8455 2019-03-12 08:31:44 20.3 15 29.8
003B8455 2019-03-12 07:59:39 20.3 15 29.8
003B8455 2019-03-12 07:27:37 20.4 15 29.8
003B8455 2019-03-12 06:55:36 20.4 15 29.8
003B8455 2019-03-12 06:23:34 20.4 15 29.8
003B8455 2019-03-12 05:51:33 20.4 16 29.8
003B8455 2019-03-12 05:19:32 20.4 16 29.7
003B8455 2019-03-12 04:47:29 20.4 16 29.5
003B8455 2019-03-12 04:15:27 20.5 16 29.3
003B8455 2019-03-12 03:43:24 20.4 16 29.1
003B8455 2019-03-12 03:11:21 20.5 16 28.9
003B8455 2019-03-12 02:39:19 20.5 16 28.7
003B8455 2019-03-12 02:07:17 20.5 16 28.5
003B8455 2019-03-12 01:35:15 20.4 16 28.3
003B8455 2019-03-12 01:03:13 20.5 16 28
003B8455 2019-03-12 00:31:10 20.5 16 27.8
003B8455 2019-03-11 23:59:07 20.5 16 27.5
003B8455 2019-03-11 23:27:05 20.5 16 27.2
003B8455 2019-03-11 22:55:03 20.6 16 26.9
003B8455 2019-03-11 22:23:01 20.6 16 26.6
003B8455 2019-03-11 21:51:00 20.6 16 26.2
003B8455 2019-03-11 21:18:59 20.6 16 26.2
003B8455 2019-03-11 20:46:58 20.6 16 25.8
003B8455 2019-03-11 20:14:56 20.7 16 25.4
003B8455 2019-03-11 19:42:54 20.7 16 25
003B8455 2019-03-11 19:10:52 20.7 16 24.6
003B8455 2019-03-11 18:38:48 20.7 16 24.1
003B8455 2019-03-11 18:06:44 20.8 16 23.3
003B8455 2019-03-11 17:34:39 20.8 16 22.6
003B8455 2019-03-11 17:02:34 20.8 16 21.8
003B8455 2019-03-11 16:30:30 20.8 16 21.8
003B8455 2019-03-11 15:58:26 20.8 16 22.1
003B8455 2019-03-11 15:26:22 20.7 16 22
003B8455 2019-03-11 14:54:20 20.7 16 22.1
003B8455 2019-03-11 14:22:18 20.6 16 22
003B8455 2019-03-11 13:50:16 20.6 16 22
003B8455 2019-03-11 13:18:13 20.6 15 22.1
003B8455 2019-03-11 12:46:13 20.5 15 21.9
003B8455 2019-03-11 12:13:38 20.5 15 22.1
003B8455 2019-03-11 11:41:36 20.5 16 22.1
003B8455 2019-03-11 11:09:35 20.5 16 22
003B8455 2019-03-11 10:37:32 20.5 16 22.2
003B8455 2019-03-11 10:05:28 20.5 16 22
003B8455 2019-03-11 09:33:25 20.4 16 22
003B8455 2019-03-11 09:01:23 20.3 16 22
003B8455 2019-03-11 08:29:21 20.3 17 22
003B8455 2019-03-11 07:57:18 20.4 17 22.2
003B8455 2019-03-11 07:25:15 20.4 17 22.1
003B8455 2019-03-11 06:53:12 20.4 17 22
003B8455 2019-03-11 06:21:10 20.4 18 21.9
003B8455 2019-03-11 05:49:08 20.4 18 21.7
003B8455 2019-03-11 05:17:06 20.4 18 21.7
003B8455 2019-03-11 04:45:05 20.4 18 21.7
003B8455 2019-03-11 04:13:02 20.4 18 21.5
003B8455 2019-03-11 03:40:59 20.4 18 20.2
003B8455 2019-03-11 03:08:55 20.4 18 20.1
003B8455 2019-03-11 02:36:53 20.4 18 20.2
003B8455 2019-03-11 02:04:51 20.5 18 20.2
003B8455 2019-03-11 01:32:49 20.5 18 20.2
003B8455 2019-03-11 01:00:46 20.5 19 20
003B8455 2019-03-11 00:28:44 20.5 19 19.8
003B8455 2019-03-10 23:56:41 20.5 19 19.8
003B8455 2019-03-10 23:24:38 20.5 19 19.7
003B8455 2019-03-10 22:52:35 20.5 19 19.5
003B8455 2019-03-10 22:20:34 20.5 19 19.5
003B8455 2019-03-10 21:48:32 20.5 19 19.5
003B8455 2019-03-10 21:16:31 20.5 19 19.2
003B8455 2019-03-10 20:44:29 20.6 19 19.2
003B8455 2019-03-10 20:12:26 20.6 19 19.1
003B8455 2019-03-10 19:40:23 20.6 19 19
003B8455 2019-03-10 19:08:20 20.6 19 18.8
003B8455 2019-03-10 18:36:17 20.7 19 18.3
003B8455 2019-03-10 18:04:13 20.7 19 18.4
003B8455 2019-03-10 17:32:09 20.7 19 18.1
003B8455 2019-03-10 17:00:07 20.7 19 18.3
003B8455 2019-03-10 16:28:05 20.7 19 18.2
003B8455 2019-03-10 15:56:04 20.7 19 18.1
003B8455 2019-03-10 15:24:02 20.7 20 17.8
003B8455 2019-03-10 14:52:00 20.6 21 17.7
003B8455 2019-03-10 14:19:58 20.6 22 17.7
003B8455 2019-03-10 13:47:55 20.6 23 17.5
003B8455 2019-03-10 13:15:53 20.6 23 17.3
003B8455 2019-03-10 12:43:50 20.6 23 17
003B8455 2019-03-10 12:11:49 20.5 23 17
003B8455 2019-03-10 11:39:49 20.5 24 17.5
003B8455 2019-03-10 11:07:43 20.5 24 17.7
003B8455 2019-03-10 10:35:40 20.5 24 18.1
003B8455 2019-03-10 10:03:38 20.5 24 18.1
003B8455 2019-03-10 09:31:05 20.5 24 18.2
003B8455 2019-03-10 08:59:00 20.5 24 18.4
003B8455 2019-03-10 08:26:57 20.5 24 18.4
003B8455 2019-03-10 07:54:55 20.5 24 18.5
003B8455 2019-03-10 07:22:53 20.5 24 18.5
003B8455 2019-03-10 06:50:50 20.5 24 18.5
003B8455 2019-03-10 06:18:48 20.6 24 18.5
003B8455 2019-03-10 05:46:47 20.6 24 18.7
003B8455 2019-03-10 05:14:44 20.6 24 18.5
003B8455 2019-03-10 04:42:41 20.6 24 18.5
003B8455 2019-03-10 04:10:38 20.6 24 18.1
003B8455 2019-03-10 03:38:35 20.6 24 18.2
003B8455 2019-03-10 03:06:32 20.6 24 18.1
003B8455 2019-03-10 02:34:29 20.6 24 18.5
003B8455 2019-03-10 02:02:26 20.6 24 18.4
003B8455 2019-03-10 01:30:23 20.6 24 18.2
003B8455 2019-03-10 00:58:20 20.6 24 18
003B8455 2019-03-10 00:26:17 20.6 24 17.9
003B8455 2019-03-09 23:54:13 20.6 24 18
003B8455 2019-03-09 23:22:10 20.6 24 18.5
003B8455 2019-03-09 22:50:06 20.6 24 18.2
003B8455 2019-03-09 22:18:03 20.6 23 18.1
003B8455 2019-03-09 21:45:59 20.6 23 17.8
003B8455 2019-03-09 21:13:55 20.7 23 17.9
003B8455 2019-03-09 20:41:52 20.7 23 18.2
003B8455 2019-03-09 20:09:48 20.7 23 18.2
003B8455 2019-03-09 19:37:44 20.7 23 18.1
003B8455 2019-03-09 19:05:41 20.7 23 18.6
003B8455 2019-03-09 18:33:38 20.7 23 18.4
003B8455 2019-03-09 18:01:35 20.7 23 18.6
003B8455 2019-03-09 17:29:32 20.7 23 18.5
003B8455 2019-03-09 16:57:28 20.8 23 18.7
003B8455 2019-03-09 16:25:25 20.8 23 18.6
003B8455 2019-03-09 15:53:23 20.8 23 18.8
003B8455 2019-03-09 15:21:19 20.8 23 19
003B8455 2019-03-09 14:49:16 20.8 23 19.3
003B8455 2019-03-09 14:17:15 20.7 23 19.3
003B8455 2019-03-09 13:45:11 20.7 23 19.4
003B8455 2019-03-09 13:13:08 20.7 23 19.1
003B8455 2019-03-09 12:41:06 20.7 23 19.1
003B8455 2019-03-09 12:09:04 20.6 23 19.1
003B8455 2019-03-09 11:37:02 20.6 23 19.3
003B8455 2019-03-09 11:05:00 20.6 23 19.3
003B8455 2019-03-09 10:32:57 20.6 23 19.4
003B8455 2019-03-09 10:00:55 20.6 24 19.1
003B8455 2019-03-09 09:28:52 20.6 24 19.3
003B8455 2019-03-09 08:56:49 20.6 24 19.2
003B8455 2019-03-09 08:24:46 20.6 24 19.5
003B8455 2019-03-09 07:52:42 20.6 24 19.6
003B8455 2019-03-09 07:20:39 20.6 25 19.3
003B8455 2019-03-09 06:48:05 20.6 25 19.3
003B8455 2019-03-09 06:16:02 20.6 25 19.4
003B8455 2019-03-09 05:43:59 20.6 25 19.4
003B8455 2019-03-09 05:11:57 20.7 26 19.3
003B8455 2019-03-09 04:39:55 20.7 26 20.9
003B8455 2019-03-09 04:07:52 20.7 26 21
003B8455 2019-03-09 03:35:51 20.7 26 21.2
003B8455 2019-03-09 03:03:46 20.7 26 21.1
003B8455 2019-03-09 02:31:42 20.7 26 21.2
003B8455 2019-03-09 01:59:39 20.7 26 21
003B8455 2019-03-09 01:27:35 20.7 27 22.1
003B8455 2019-03-09 00:55:31 20.8 27 22.2
003B8455 2019-03-09 00:23:28 20.8 27 22.2
003B8455 2019-03-08 23:51:25 20.8 27 22.2
003B8455 2019-03-08 23:19:23 20.8 27 22.2
003B8455 2019-03-08 22:47:19 20.8 27 22.2
003B8455 2019-03-08 22:15:17 20.9 27 22.2
003B8455 2019-03-08 21:43:14 20.9 27 22.2
003B8455 2019-03-08 21:11:11 20.9 27 22.2
003B8455 2019-03-08 20:39:08 20.9 27 22.1
003B8455 2019-03-08 20:07:04 20.9 27 22.1
003B8455 2019-03-08 19:35:02 21 27 21.9
003B8455 2019-03-08 19:03:00 21 27 21.9
003B8455 2019-03-08 18:30:57 21 27 22
003B8455 2019-03-08 17:58:55 21 27 22
003B8455 2019-03-08 17:26:54 21.1 27 22
003B8455 2019-03-08 16:54:53 21.2 28 21.8
003B8455 2019-03-08 16:22:51 21.1 28 21.8
003B8455 2019-03-08 15:50:50 21.1 28 21.9
003B8455 2019-03-08 15:18:49 21 28 20.7
003B8455 2019-03-08 14:46:47 21 27 20.7
003B8455 2019-03-08 14:14:46 21 28 20.5
003B8455 2019-03-08 13:42:47 20.9 27 20.6
003B8455 2019-03-08 13:10:43 20.9 27 20.4
003B8455 2019-03-08 12:38:41 20.9 27 20.5
003B8455 2019-03-08 12:06:39 20.8 27 18.8
003B8455 2019-03-08 11:34:37 20.8 26 18.7
003B8455 2019-03-08 11:02:35 20.8 26 18.9
003B8455 2019-03-08 10:30:33 20.8 26 19.1
003B8455 2019-03-08 09:58:31 20.7 26 19
003B8455 2019-03-08 09:26:26 20.7 25 19
003B8455 2019-03-08 08:54:24 20.7 25 18.7
003B8455 2019-03-08 08:22:23 20.7 25 18.9
003B8455 2019-03-08 07:50:22 20.7 24 18.9
003B8455 2019-03-08 07:18:21 20.7 24 18.8
003B8455 2019-03-08 06:46:20 20.7 24 18.8
003B8455 2019-03-08 06:14:20 20.7 24 18.5
003B8455 2019-03-08 05:42:19 20.7 23 18.7
003B8455 2019-03-08 05:10:18 20.7 23 18.6
003B8455 2019-03-08 04:38:17 20.7 23 18.5
003B8455 2019-03-08 04:05:44 20.7 23 18.6
003B8455 2019-03-08 03:33:44 20.7 23 18.5
003B8455 2019-03-08 03:01:43 20.7 23 20.4
003B8455 2019-03-08 02:29:42 20.7 23 20.2
003B8455 2019-03-08 01:57:41 20.7 23 20.2
003B8455 2019-03-08 01:25:40 20.7 23 20.4
003B8455 2019-03-08 00:53:38 20.7 23 20.4
003B8455 2019-03-08 00:21:37 20.7 23 20.4
003B8455 2019-03-07 23:49:37 20.7 23 20.4
003B8455 2019-03-07 23:17:36 20.7 23 20.5
003B8455 2019-03-07 22:45:34 20.8 23 20.6
003B8455 2019-03-07 22:13:33 20.8 22 20.6
003B8455 2019-03-07 21:41:32 20.8 22 20.8
003B8455 2019-03-07 21:09:29 20.8 23 20.9
003B8455 2019-03-07 20:37:27 20.9 23 21.2
003B8455 2019-03-07 20:05:25 20.9 23 21.3
003B8455 2019-03-07 19:33:22 20.9 23 21.4
003B8455 2019-03-07 19:01:20 20.9 23 21.7
003B8455 2019-03-07 18:29:16 21 23 21.9
003B8455 2019-03-07 17:57:13 21.1 23 22.1
003B8455 2019-03-07 17:25:10 21.2 23 22.3
003B8455 2019-03-07 16:53:07 21.2 23 22.2
003B8455 2019-03-07 16:21:04 21.2 23 22.4
003B8455 2019-03-07 15:49:01 21.2 23 22.5
003B8455 2019-03-07 15:17:00 21.1 23 22.8
003B8455 2019-03-07 14:44:58 21.2 23 23
003B8455 2019-03-07 14:12:57 21.1 23 23.1
003B8455 2019-03-07 13:40:55 21 21 22.3
003B8455 2019-03-07 13:08:53 21 22 22.5
003B8455 2019-03-07 12:36:50 20.9 21 22.6
003B8455 2019-03-07 12:04:48 20.9 20 22.5
003B8455 2019-03-07 11:32:49 20.9 20 22.7
003B8455 2019-03-07 11:00:44 20.9 20 22.9
003B8455 2019-03-07 10:28:40 20.8 19 22.8
003B8455 2019-03-07 09:56:38 20.7 19 23
003B8455 2019-03-07 09:24:37 20.7 18 22.9
003B8455 2019-03-07 08:52:36 20.7 18 23.1
003B8455 2019-03-07 08:20:33 20.7 18 23
003B8455 2019-03-07 07:48:32 20.7 17 23.2
003B8455 2019-03-07 07:16:31 20.7 16 23
003B8455 2019-03-07 06:44:29 20.7 16 22.9
003B8455 2019-03-07 06:12:26 20.7 16 22.9
003B8455 2019-03-07 05:40:25 20.7 15 22.8
003B8455 2019-03-07 05:08:22 20.7 15 22.7
003B8455 2019-03-07 04:36:20 20.7 15 22.5
003B8455 2019-03-07 04:04:18 20.7 15 22.4
003B8455 2019-03-07 03:32:16 20.7 14 22.3
003B8455 2019-03-07 03:00:14 20.7 14 22.1
003B8455 2019-03-07 02:28:12 20.7 14 21.9
003B8455 2019-03-07 01:56:09 20.7 14 22.7
003B8455 2019-03-07 01:23:35 20.7 14 22.3
003B8455 2019-03-07 00:51:33 20.7 13 22.3
003B8455 2019-03-07 00:19:32 20.7 13 22.1
003B8455 2019-03-06 23:47:30 20.7 13 22.1
003B8455 2019-03-06 23:15:29 20.7 13 22.1
003B8455 2019-03-06 22:43:29 20.7 13 21.9
003B8455 2019-03-06 22:11:27 20.7 13 21.9
003B8455 2019-03-06 21:39:27 20.7 12 21.9
003B8455 2019-03-06 21:07:26 20.7 12 21.9
003B8455 2019-03-06 20:35:25 20.8 12 21.9
003B8455 2019-03-06 20:03:24 20.7 12 21.9
003B8455 2019-03-06 19:31:24 20.8 12 22
003B8455 2019-03-06 18:59:23 20.8 12 22
003B8455 2019-03-06 18:27:23 20.8 11 22.2
003B8455 2019-03-06 17:55:24 20.9 11 22.5
003B8455 2019-03-06 17:23:25 20.9 11 22.7
003B8455 2019-03-06 16:51:24 21 11 22.6
003B8455 2019-03-06 16:19:24 21 11 22.6
003B8455 2019-03-06 15:47:23 21 11 22.6
003B8455 2019-03-06 15:15:22 21.1 11 22.8
003B8455 2019-03-06 14:43:20 21 11 23.1
003B8455 2019-03-06 14:11:18 20.9 10 23.1
003B8455 2019-03-06 13:39:16 20.7 10 23.3
003B8455 2019-03-06 13:07:15 20.7 10 22.6
003B8455 2019-03-06 12:35:14 20.7 10 22.9
003B8455 2019-03-06 12:03:13 20.7 11 23
003B8455 2019-03-06 11:31:10 20.6 10 23
003B8455 2019-03-06 10:59:09 20.7 11 23
003B8455 2019-03-06 10:27:06 20.7 11 23.2
003B8455 2019-03-06 09:55:03 20.5 10 23.4
003B8455 2019-03-06 09:23:01 20.4 10 23.4
003B8455 2019-03-06 08:50:59 20.4 10 23.4
003B8455 2019-03-06 08:18:55 20.4 11 23.5
003B8455 2019-03-06 07:46:53 20.5 11 23.4
003B8455 2019-03-06 07:14:51 20.5 11 23.5
003B8455 2019-03-06 06:42:48 20.5 11 23.4
003B8455 2019-03-06 06:10:44 20.5 12 23.3
003B8455 2019-03-06 05:38:42 20.5 12 23.1
003B8455 2019-03-06 05:06:40 20.5 12 23.1
003B8455 2019-03-06 04:34:37 20.5 12 22.9
003B8455 2019-03-06 04:02:35 20.5 12 22.8
003B8455 2019-03-06 03:30:34 20.5 12 22.8
003B8455 2019-03-06 02:58:32 20.6 12 22.8
003B8455 2019-03-06 02:26:31 20.5 12 22.8
003B8455 2019-03-06 01:54:31 20.6 12 22.6
003B8455 2019-03-06 01:22:31 20.6 12 22.3
003B8455 2019-03-06 00:50:29 20.6 12 22.3
003B8455 2019-03-06 00:18:28 20.7 12 22.4
003B8455 2019-03-05 23:46:27 20.7 13 22.2
003B8455 2019-03-05 23:14:28 20.7 13 21.8
003B8455 2019-03-05 22:41:55 20.7 13 21.7
003B8455 2019-03-05 22:09:54 20.8 13 21.7
003B8455 2019-03-05 21:37:53 20.8 13 21.6
003B8455 2019-03-05 21:05:50 20.9 13 21.5
003B8455 2019-03-05 20:33:50 20.9 12 21.5
003B8455 2019-03-05 20:01:48 20.9 12 21.3
003B8455 2019-03-05 19:29:46 20.9 12 21.5
003B8455 2019-03-05 18:57:44 20.9 12 21.3
003B8455 2019-03-05 18:25:42 20.9 12 21.3
003B8455 2019-03-05 17:53:41 21 12 21.5
003B8455 2019-03-05 17:21:40 21.1 13 21.7
003B8455 2019-03-05 16:49:39 21.2 13 21.8
003B8455 2019-03-05 16:17:37 21.2 13 21.6
003B8455 2019-03-05 15:45:35 21.2 14 21.8
003B8455 2019-03-05 15:13:33 21 14 21.9
003B8455 2019-03-05 14:41:33 20.7 15 21.8
003B8455 2019-03-05 14:09:30 20.7 15 21.8
003B8455 2019-03-05 13:37:30 20.6 16 21.8
003B8455 2019-03-05 13:05:29 20.6 16 21.9
003B8455 2019-03-05 12:33:28 20.6 16 22.1
003B8455 2019-03-05 12:01:28 20.6 16 22.1
003B8455 2019-03-05 11:29:26 20.6 17 22
003B8455 2019-03-05 10:57:24 20.5 17 22.1
003B8455 2019-03-05 10:25:22 20.5 17 22.1
003B8455 2019-03-05 09:53:21 20.5 17 22.1
003B8455 2019-03-05 09:21:18 20.5 17 22
003B8455 2019-03-05 08:49:15 20.4 18 22.1
003B8455 2019-03-05 08:17:12 20.4 18 21.9
003B8455 2019-03-05 07:45:10 20.5 18 22.2
003B8455 2019-03-05 07:13:08 20.5 19 22.4
003B8455 2019-03-05 06:41:06 20.5 19 22.5
003B8455 2019-03-05 06:09:02 20.5 19 22.2
003B8455 2019-03-05 05:36:59 20.5 19 22.2
003B8455 2019-03-05 05:04:55 20.5 19 22
003B8455 2019-03-05 04:32:52 20.5 19 21.7
003B8455 2019-03-05 04:00:50 20.5 19 21.5
003B8455 2019-03-05 03:28:49 20.5 19 21.3
003B8455 2019-03-05 02:56:46 20.5 19 21.2
003B8455 2019-03-05 02:24:43 20.5 19 21
003B8455 2019-03-05 01:52:40 20.5 19 20.8
003B8455 2019-03-05 01:20:36 20.5 19 21.1
003B8455 2019-03-05 00:48:34 20.5 19 21.1
003B8455 2019-03-05 00:16:31 20.5 19 21.1
003B8455 2019-03-04 23:44:29 20.5 19 21
003B8455 2019-03-04 23:12:26 20.5 19 21
003B8455 2019-03-04 22:40:23 20.6 19 20.8
003B8455 2019-03-04 22:08:19 20.6 18 20.9
003B8455 2019-03-04 21:36:15 20.5 18 20.7
003B8455 2019-03-04 21:04:13 20.6 18 21
003B8455 2019-03-04 20:32:09 20.5 18 21.2
003B8455 2019-03-04 19:59:33 20.5 18 21
003B8455 2019-03-04 19:27:29 20.5 18 21
003B8455 2019-03-04 18:55:26 20.5 18 20.4
003B8455 2019-03-04 18:23:23 20.5 18 20.1
003B8455 2019-03-04 17:51:19 20.6 18 20
003B8455 2019-03-04 17:19:16 20.6 18 20.4
003B8455 2019-03-04 16:47:12 20.6 18 20.5
003B8455 2019-03-04 16:15:08 20.6 18 20.6
003B8455 2019-03-04 15:43:04 20.5 18 20.6
003B8455 2019-03-04 15:11:01 20.5 17 21.8
003B8455 2019-03-04 14:38:59 20.5 17 22
003B8455 2019-03-04 14:06:57 20.5 17 21.9
003B8455 2019-03-04 13:34:54 20.4 17 22
003B8455 2019-03-04 13:02:51 20.4 17 22
003B8455 2019-03-04 12:30:48 20.4 17 21.9
003B8455 2019-03-04 11:58:44 20.3 16 21.9
003B8455 2019-03-04 11:26:42 20.3 16 21.9
003B8455 2019-03-04 10:54:39 20.3 16 22.7
003B8455 2019-03-04 10:22:37 20.2 16 22.5
003B8455 2019-03-04 09:50:34 20.2 16 22.6
003B8455 2019-03-04 09:18:32 20.1 16 22.5
003B8455 2019-03-04 08:46:29 20.1 17 22.5
003B8455 2019-03-04 08:14:27 20 17 22.2
003B8455 2019-03-04 07:42:23 20 17 22.4
003B8455 2019-03-04 07:10:20 20 18 22.4
003B8455 2019-03-04 06:38:15 20 18 22.4
003B8455 2019-03-04 06:06:14 20 18 22.5
003B8455 2019-03-04 05:34:10 20 18 22.5
003B8455 2019-03-04 05:02:07 20 18 22.5
003B8455 2019-03-04 04:30:04 20 17 22.6
003B8455 2019-03-04 03:58:00 20.1 17 22.3
003B8455 2019-03-04 03:25:58 20 17 22.2
003B8455 2019-03-04 02:53:56 20 17 22.3
003B8455 2019-03-04 02:21:54 20.1 17 22.4
003B8455 2019-03-04 01:49:53 20.1 17 21.3
003B8455 2019-03-04 01:17:49 20.1 17 21.2
003B8455 2019-03-04 00:45:47 20.1 17 21.2
003B8455 2019-03-04 00:13:45 20.1 17 21.2
003B8455 2019-03-03 23:41:42 20.1 17 21.1
003B8455 2019-03-03 23:09:40 20.1 17 21.1
003B8455 2019-03-03 22:37:38 20.1 17 21.1
003B8455 2019-03-03 22:05:37 20.1 17 21.1
003B8455 2019-03-03 21:33:34 20.1 17 19.5
003B8455 2019-03-03 21:01:31 20.1 17 19.7
003B8455 2019-03-03 20:29:29 20.1 17 19.8
003B8455 2019-03-03 19:57:28 20.1 17 19.9
003B8455 2019-03-03 19:25:26 20.1 18 20
003B8455 2019-03-03 18:53:22 20.1 18 20
003B8455 2019-03-03 18:21:19 20.2 18 19.5
003B8455 2019-03-03 17:49:16 20.2 18 19.8
003B8455 2019-03-03 17:16:42 20.2 18 19.5
003B8455 2019-03-03 16:44:39 20.2 18 19.5
003B8455 2019-03-03 16:12:36 20.2 18 19.6
003B8455 2019-03-03 15:40:34 20.2 18 19.3
003B8455 2019-03-03 15:08:31 20.2 18 19.2
003B8455 2019-03-03 14:36:30 20.2 18 19.2
003B8455 2019-03-03 14:04:26 20.2 18 19
003B8455 2019-03-03 13:32:24 20.2 18 18.8
003B8455 2019-03-03 13:00:22 20.2 18 18.7
003B8455 2019-03-03 12:28:21 20.2 18 18.6
003B8455 2019-03-03 11:56:17 20.2 18 18.7
003B8455 2019-03-03 11:24:15 20.2 18 18.7
003B8455 2019-03-03 10:52:14 20.2 18 18.4
003B8455 2019-03-03 10:20:11 20.2 18 18.2
003B8455 2019-03-03 09:48:08 20.2 18 18.1
003B8455 2019-03-03 09:16:05 20.2 18 18.1
003B8455 2019-03-03 08:44:01 20.2 18 18.1
003B8455 2019-03-03 08:11:58 20.2 18 18
003B8455 2019-03-03 07:39:55 20.2 18 17.8
003B8455 2019-03-03 07:07:50 20.2 18 17.6
003B8455 2019-03-03 06:35:48 20.2 18 17.4
003B8455 2019-03-03 06:03:44 20.2 18 17.5
003B8455 2019-03-03 05:31:40 20.3 18 17.4
003B8455 2019-03-03 04:59:34 20.3 18 17
003B8455 2019-03-03 04:27:28 20.3 18 16.7
003B8455 2019-03-03 03:55:24 20.3 18 16.7
003B8455 2019-03-03 03:23:18 20.3 18 16.7
003B8455 2019-03-03 02:51:14 20.3 18 16.9
003B8455 2019-03-03 02:19:09 20.3 18 16.8
003B8455 2019-03-03 01:47:03 20.3 18 16.7
003B8455 2019-03-03 01:14:58 20.3 18 16.6
003B8455 2019-03-03 00:42:54 20.3 18 16.7
003B8455 2019-03-03 00:10:50 20.3 18 16.7
003B8455 2019-03-02 23:38:46 20.3 18 16.7
003B8455 2019-03-02 23:06:43 20.4 18 16.6
003B8455 2019-03-02 22:34:38 20.3 18 16.9
003B8455 2019-03-02 22:02:37 20.4 18 17
003B8455 2019-03-02 21:30:31 20.4 18 16.9
003B8455 2019-03-02 20:58:29 20.4 18 19.4
003B8455 2019-03-02 20:26:26 20.4 18 19.5
003B8455 2019-03-02 19:54:23 20.4 18 19.7
003B8455 2019-03-02 19:22:20 20.4 17 19.7
003B8455 2019-03-02 18:50:17 20.4 17 19.8
003B8455 2019-03-02 18:18:15 20.5 17 19.8
003B8455 2019-03-02 17:46:13 20.5 17 19.9
003B8455 2019-03-02 17:14:11 20.5 17 19.8
003B8455 2019-03-02 16:42:08 20.6 17 19.8
003B8455 2019-03-02 16:10:05 20.6 17 20.2
003B8455 2019-03-02 15:38:02 20.6 17 20.1
003B8455 2019-03-02 15:06:00 20.5 17 20.3
003B8455 2019-03-02 14:33:24 20.4 17 20.6
003B8455 2019-03-02 14:01:22 20.4 17 20.5
003B8455 2019-03-02 13:29:20 20.4 17 20.7
003B8455 2019-03-02 12:57:18 20.4 16 20.9
003B8455 2019-03-02 12:25:14 20.4 16 20.9
003B8455 2019-03-02 11:53:11 20.4 16 20.8
003B8455 2019-03-02 11:21:08 20.4 16 20.9
003B8455 2019-03-02 10:49:06 20.4 16 21.3
003B8455 2019-03-02 10:17:03 20.4 16 21.4
003B8455 2019-03-02 09:44:59 20.4 16 21.4
003B8455 2019-03-02 09:12:58 20.4 16 22.5
003B8455 2019-03-02 08:40:54 20.4 16 22.5
003B8455 2019-03-02 08:08:50 20.4 15 21.6
003B8455 2019-03-02 07:36:47 20.4 15 21.5
003B8455 2019-03-02 07:04:44 20.4 15 21.7
003B8455 2019-03-02 06:32:41 20.4 15 21.9
003B8455 2019-03-02 06:00:38 20.4 15 21.8
003B8455 2019-03-02 05:28:33 20.4 15 21.8
003B8455 2019-03-02 04:56:31 20.4 15 21.7
003B8455 2019-03-02 04:24:27 20.5 15 21.7
003B8455 2019-03-02 03:52:22 20.5 15 21.8
003B8455 2019-03-02 03:20:19 20.5 14 21.5
003B8455 2019-03-02 02:48:16 20.5 14 21.4
003B8455 2019-03-02 02:16:12 20.5 14 21.3
003B8455 2019-03-02 01:44:10 20.6 14 21.3
003B8455 2019-03-02 01:12:06 20.6 14 21.1
003B8455 2019-03-02 00:40:03 20.7 14 21.4
003B8455 2019-03-02 00:07:59 20.7 14 21.3
003B8455 2019-03-01 23:35:57 20.7 14 21.1
003B8455 2019-03-01 23:03:55 20.8 13 21.3
003B8455 2019-03-01 22:31:53 20.8 13 21.5
003B8455 2019-03-01 21:59:50 20.9 13 21.8
003B8455 2019-03-01 21:27:47 21 13 21.5
003B8455 2019-03-01 20:55:45 21 12 21.4
003B8455 2019-03-01 20:23:43 21 12 21.4
003B8455 2019-03-01 19:51:40 21 12 19.9
003B8455 2019-03-01 19:19:38 21 12 20
003B8455 2019-03-01 18:47:36 21 11 20.3
003B8455 2019-03-01 18:15:33 21.1 11 20.7
003B8455 2019-03-01 17:43:31 21.2 12 20.4
003B8455 2019-03-01 17:11:29 21.3 12 20
003B8455 2019-03-01 16:39:25 21.4 12 20
003B8455 2019-03-01 16:07:22 21.4 13 20.2
003B8455 2019-03-01 15:35:18 21.3 13 20.4
003B8455 2019-03-01 15:03:19 21.2 13 20.4
003B8455 2019-03-01 14:31:11 21 14 20.4
003B8455 2019-03-01 13:59:08 20.9 14 20.4
003B8455 2019-03-01 13:27:07 20.9 14 20.5
003B8455 2019-03-01 12:55:02 20.9 14 20.6
003B8455 2019-03-01 12:22:59 20.9 15 20.6
003B8455 2019-03-01 11:50:23 21 15 20.4
003B8455 2019-03-01 11:18:21 21 16 20.4
003B8455 2019-03-01 10:46:17 20.9 15 20.5
003B8455 2019-03-01 10:14:15 20.8 15 20.3
003B8455 2019-03-01 09:42:10 20.7 15 20.2
003B8455 2019-03-01 09:10:05 20.6 15 19.7
003B8455 2019-03-01 08:38:04 20.5 16 19.9
003B8455 2019-03-01 08:06:00 20.5 16 21.3
003B8455 2019-03-01 07:33:56 20.6 17 21.4
003B8455 2019-03-01 07:01:56 20.6 17 21.6
003B8455 2019-03-01 06:29:52 20.6 17 21.6
003B8455 2019-03-01 05:57:50 20.6 18 21.3
003B8455 2019-03-01 05:25:48 20.6 18 20.9
003B8455 2019-03-01 04:53:47 20.6 18 20.9
003B8455 2019-03-01 04:21:45 20.6 18 20.9
003B8455 2019-03-01 03:49:43 20.6 18 21.1
003B8455 2019-03-01 03:17:41 20.6 19 20.9
003B8455 2019-03-01 02:45:38 20.7 19 21
003B8455 2019-03-01 02:13:35 20.6 19 21
003B8455 2019-03-01 01:41:34 20.7 19 21
003B8455 2019-03-01 01:09:31 20.7 20 21
003B8455 2019-03-01 00:37:28 20.7 20 20.9
003B8455 2019-03-01 00:05:27 20.7 20 20.9
003B8455 2019-02-28 23:33:24 20.7 21 20.9
003B8455 2019-02-28 23:01:22 20.7 21 20.8
003B8455 2019-02-28 22:29:20 20.8 22 20.6
003B8455 2019-02-28 21:57:18 20.8 22 20.7
003B8455 2019-02-28 21:25:15 20.8 22 20.6
003B8455 2019-02-28 20:53:13 20.9 22 20.8
003B8455 2019-02-28 20:21:11 20.9 23 20.8
003B8455 2019-02-28 19:49:11 21 23 21
003B8455 2019-02-28 19:17:06 21 23 20.8
003B8455 2019-02-28 18:45:03 21 23 19.5
003B8455 2019-02-28 18:13:00 21.1 24 19.2
003B8455 2019-02-28 17:40:58 21.2 25 18.8
003B8455 2019-02-28 17:08:55 21.4 26 19
003B8455 2019-02-28 16:36:52 21.4 27 20.7
003B8455 2019-02-28 16:04:52 21.4 27 20.8
003B8455 2019-02-28 15:32:46 21.3 26 20.8
003B8455 2019-02-28 15:00:43 21.2 25 21.1
003B8455 2019-02-28 14:28:39 21.2 25 21.4
003B8455 2019-02-28 13:56:36 21.3 25 21.4
003B8455 2019-02-28 13:24:33 21.3 25 21.4
003B8455 2019-02-28 12:52:32 21.2 25 21.5
003B8455 2019-02-28 12:20:29 21.2 25 21.7
003B8455 2019-02-28 11:48:25 21.2 25 21.8
003B8455 2019-02-28 11:16:21 21.1 25 21.8
003B8455 2019-02-28 10:44:19 21 25 21.9
003B8455 2019-02-28 09:40:12 20.8 23 22.1
003B8455 2019-02-28 09:07:37 20.8 22 22.2
003B8455 2019-02-28 08:35:35 20.7 22 22.3
003B8455 2019-02-28 08:03:33 20.7 22 22.3
003B8455 2019-02-28 07:31:32 20.7 22 22.4
003B8455 2019-02-28 06:59:30 20.7 22 22.2
003B8455 2019-02-28 06:27:28 20.7 22 22.2
003B8455 2019-02-28 05:55:26 20.8 22 22.3
003B8455 2019-02-28 05:23:25 20.8 22 22.3
003B8455 2019-02-28 04:51:21 20.8 22 22.3
003B8455 2019-02-28 04:19:19 20.8 22 22.1
003B8455 2019-02-28 03:47:17 20.8 22 21
003B8455 2019-02-28 03:15:14 20.8 21 21
003B8455 2019-02-28 02:43:12 20.8 21 20.9
003B8455 2019-02-28 02:11:11 20.8 21 20.6
003B8455 2019-02-28 01:39:09 20.8 21 20.1
003B8455 2019-02-28 01:07:10 20.8 22 20.3
003B8455 2019-02-28 00:35:06 20.8 22 20.2
003B8455 2019-02-28 00:03:03 20.9 22 20.2
003B8455 2019-02-27 23:31:01 20.9 22 19.8
003B8455 2019-02-27 22:59:00 20.9 22 19.7
003B8455 2019-02-27 22:26:59 21 22 19.6
003B8455 2019-02-27 21:54:58 21 22 19.4
003B8455 2019-02-27 21:22:56 21.1 22 19.3
003B8455 2019-02-27 20:50:53 21.1 23 18.9
003B8455 2019-02-27 20:18:50 21.1 23 18.7
003B8455 2019-02-27 19:46:48 21.2 23 18.4
003B8455 2019-02-27 19:14:45 21.2 23 18.3
003B8455 2019-02-27 18:42:43 21.3 23 18
003B8455 2019-02-27 18:10:40 21.4 23 17.5
003B8455 2019-02-27 17:38:37 21.6 24 17.4
003B8455 2019-02-27 17:06:34 21.7 25 17.4
003B8455 2019-02-27 16:34:32 21.7 26 16.6
003B8455 2019-02-27 16:02:29 21.7 26 16.6
003B8455 2019-02-27 15:30:25 21.7 26 16.5
003B8455 2019-02-27 14:58:22 21.6 26 16.6
003B8455 2019-02-27 14:26:17 21.4 26 16.6
003B8455 2019-02-27 13:54:14 21.3 26 16.3
003B8455 2019-02-27 13:22:10 21.2 25 16.6
003B8455 2019-02-27 12:50:07 21.3 25 16.7
003B8455 2019-02-27 12:18:03 21.2 25 16.6
003B8455 2019-02-27 11:46:00 21.1 24 15.7
003B8455 2019-02-27 11:13:56 21.1 24 15.1
003B8455 2019-02-27 10:41:53 21 24 15.1
003B8455 2019-02-27 10:09:49 20.9 24 15.3
003B8455 2019-02-27 09:37:47 20.9 24 14.8
003B8455 2019-02-27 09:05:40 20.9 23 18.5
003B8455 2019-02-27 08:33:37 20.9 23 18.4
003B8455 2019-02-27 08:01:33 20.9 23 18.4
003B8455 2019-02-27 07:29:31 20.9 23 18.3
003B8455 2019-02-27 06:57:29 20.9 23 18.4
003B8455 2019-02-27 06:24:45 20.9 23 18.4
003B8455 2019-02-27 05:52:43 21 23 18.2
003B8455 2019-02-27 05:20:40 21 23 18.3
003B8455 2019-02-27 04:48:38 21 23 18.3
003B8455 2019-02-27 04:16:35 21 23 18.2
003B8455 2019-02-27 03:44:36 21 23 18.2
003B8455 2019-02-27 03:12:34 21 23 18.2
003B8455 2019-02-27 02:40:32 21.1 23 18.3
003B8455 2019-02-27 02:08:30 21.1 23 20.3
003B8455 2019-02-27 01:36:25 21.1 23 20.3
003B8455 2019-02-27 01:04:25 21.2 23 20.5
003B8455 2019-02-27 00:32:21 21.2 23 21.8
003B8455 2019-02-27 00:00:20 21.3 23 22.7
003B8455 2019-02-26 23:28:15 21.3 23 22.7
003B8455 2019-02-26 22:56:16 21.3 23 22.7
003B8455 2019-02-26 22:24:12 21.4 23 23.6
003B8455 2019-02-26 21:52:05 21.4 24 24.3
003B8455 2019-02-26 21:20:02 21.5 24 24.8
003B8455 2019-02-26 20:47:59 21.6 24 24.9
003B8455 2019-02-26 20:15:54 21.6 24 24.9
003B8455 2019-02-26 19:43:50 21.7 24 25.4
003B8455 2019-02-26 19:11:47 21.7 24 25.9
003B8455 2019-02-26 18:39:42 21.8 24 26.3
003B8455 2019-02-26 18:07:38 21.8 24 26.7
003B8455 2019-02-26 17:35:34 21.8 24 27
003B8455 2019-02-26 16:31:27 21.8 24 27.4
003B8455 2019-02-26 15:59:21 21.7 25 27.7
003B8455 2019-02-26 15:27:20 21.6 25 27.9
003B8455 2019-02-26 14:55:15 21.5 24 28.2
003B8455 2019-02-26 14:23:10 21.5 24 28.5
003B8455 2019-02-26 13:19:04 21.4 24 28.7
003B8455 2019-02-26 12:47:02 21.4 24 28.9
003B8455 2019-02-26 12:15:00 21.3 24 28.9
003B8455 2019-02-26 11:42:56 21.2 24 29.1
003B8455 2019-02-26 11:10:54 21.2 24 29.3
003B8455 2019-02-26 10:38:51 21.1 24 29.3
003B8455 2019-02-26 10:06:49 21 23 29.3
003B8455 2019-02-26 09:34:46 20.9 23 29.3
003B8455 2019-02-26 09:02:44 20.9 23 29.5
003B8455 2019-02-26 08:30:42 20.9 22 29.7
003B8455 2019-02-26 07:58:38 20.9 22 29.7
003B8455 2019-02-26 07:26:36 20.9 22 29.7
003B8455 2019-02-26 06:54:33 20.9 22 29.7
003B8455 2019-02-26 06:22:30 20.9 22 29.9
003B8455 2019-02-26 05:50:26 20.9 22 29.9
003B8455 2019-02-26 05:18:23 20.9 22 29.9
003B8455 2019-02-26 04:46:19 20.9 22 29.7
003B8455 2019-02-26 04:14:17 20.9 22 29.7
003B8455 2019-02-26 03:41:43 21 22 29.3
003B8455 2019-02-26 03:09:41 21 22 29.1
003B8455 2019-02-26 02:37:40 21 21 28.9
003B8455 2019-02-26 02:05:38 21 21 28.7
003B8455 2019-02-26 01:33:36 21.1 21 28.5
003B8455 2019-02-26 01:01:33 21.1 21 28.3
003B8455 2019-02-26 00:29:30 21.1 21 28
003B8455 2019-02-25 23:57:27 21.1 21 27.8
003B8455 2019-02-25 23:25:25 21.2 21 27.5
003B8455 2019-02-25 22:53:21 21.2 21 27.2
003B8455 2019-02-25 22:21:18 21.3 21 26.9
003B8455 2019-02-25 21:49:15 21.3 21 26.6
003B8455 2019-02-25 21:17:12 21.4 21 26.2
003B8455 2019-02-25 20:45:09 21.4 21 26.1
003B8455 2019-02-25 20:13:06 21.5 21 25.7
003B8455 2019-02-25 19:41:03 21.5 21 25.2
003B8455 2019-02-25 19:09:00 21.6 21 24.7
003B8455 2019-02-25 18:36:58 21.6 21 24.1
003B8455 2019-02-25 18:04:56 21.6 22 23.4
003B8455 2019-02-25 17:32:52 21.6 22 22.5
003B8455 2019-02-25 17:00:51 21.6 22 21.7
003B8455 2019-02-25 16:28:48 21.6 22 20.4
003B8455 2019-02-25 15:56:50 21.6 22 20.5
003B8455 2019-02-25 15:24:48 21.5 22 18.7
003B8455 2019-02-25 14:52:45 21.4 23 18.7
003B8455 2019-02-25 14:20:43 21.3 22 18.5
003B8455 2019-02-25 13:48:42 21.2 22 18.5
003B8455 2019-02-25 13:16:41 21.2 22 18.1
003B8455 2019-02-25 12:44:37 21.1 22 18.1
003B8455 2019-02-25 12:12:32 21 22 17.8
003B8455 2019-02-25 11:40:31 20.9 22 17.6
003B8455 2019-02-25 11:08:26 20.9 22 17.7
003B8455 2019-02-25 10:36:24 20.8 22 17.4
003B8455 2019-02-25 10:04:22 20.7 22 17.4
003B8455 2019-02-25 09:32:21 20.7 22 17.2
003B8455 2019-02-25 09:00:16 20.7 22 17.5
003B8455 2019-02-25 08:28:17 20.6 22 17
003B8455 2019-02-25 07:56:12 20.6 22 17.1
003B8455 2019-02-25 07:24:14 20.6 22 17
003B8455 2019-02-25 06:52:09 20.6 22 16.9
003B8455 2019-02-25 06:20:04 20.6 22 17
003B8455 2019-02-25 05:48:01 20.6 22 16.6
003B8455 2019-02-25 05:15:58 20.7 22 16.6
003B8455 2019-02-25 04:43:55 20.7 22 16.6
003B8455 2019-02-25 04:11:52 20.7 22 16.7
003B8455 2019-02-25 03:39:49 20.7 22 16
003B8455 2019-02-25 03:07:48 20.7 22 18.8
003B8455 2019-02-25 02:35:43 20.7 22 18.6
003B8455 2019-02-25 02:03:40 20.7 22 18.6
003B8455 2019-02-25 01:31:36 20.7 22 18.5
003B8455 2019-02-25 00:58:56 20.7 22 18.7
003B8455 2019-02-25 00:26:49 20.7 23 18.7
003B8455 2019-02-24 23:54:46 20.7 23 18.7
003B8455 2019-02-24 23:22:42 20.7 23 18.6
003B8455 2019-02-24 22:50:39 20.7 23 18.5
003B8455 2019-02-24 22:18:36 20.8 23 18.5
003B8455 2019-02-24 21:46:33 20.8 23 18.4
003B8455 2019-02-24 21:14:31 20.8 23 18.4
003B8455 2019-02-24 20:42:28 20.8 23 18.5
003B8455 2019-02-24 20:10:25 20.8 23 18.2
003B8455 2019-02-24 19:38:21 20.8 22 18.3
003B8455 2019-02-24 19:06:18 20.8 22 18.3
003B8455 2019-02-24 18:34:16 20.8 22 18.4
003B8455 2019-02-24 18:02:12 20.8 22 18.5
003B8455 2019-02-24 17:30:11 20.8 22 18.4
003B8455 2019-02-24 16:58:09 20.8 22 18.5
003B8455 2019-02-24 16:26:07 20.8 22 18.5
003B8455 2019-02-24 15:54:05 20.8 22 18.7
003B8455 2019-02-24 15:22:03 20.8 22 18.8
003B8455 2019-02-24 14:50:01 20.8 21 18.9
003B8455 2019-02-24 14:17:59 20.8 21 15.9
003B8455 2019-02-24 13:45:57 20.8 21 16.1
003B8455 2019-02-24 13:13:56 20.8 21 16.1
003B8455 2019-02-24 12:41:53 20.8 21 16.2
003B8455 2019-02-24 12:09:51 20.8 21 16.5
003B8455 2019-02-24 11:37:50 20.8 21 16.2
003B8455 2019-02-24 11:05:45 20.8 21 16.2
003B8455 2019-02-24 10:33:44 20.8 21 16.4
003B8455 2019-02-24 10:01:43 20.8 21 16.3
003B8455 2019-02-24 09:29:39 20.8 21 19.1
003B8455 2019-02-24 08:57:40 20.8 21 19.2
003B8455 2019-02-24 08:25:36 20.8 21 19.2
003B8455 2019-02-24 07:53:35 20.8 21 19.1
003B8455 2019-02-24 07:21:32 20.9 20 19.1
003B8455 2019-02-24 06:49:29 20.9 20 19.1
003B8455 2019-02-24 06:17:29 20.8 20 19.2
003B8455 2019-02-24 05:45:25 20.9 20 19.2
003B8455 2019-02-24 05:13:23 20.9 20 20.9
003B8455 2019-02-24 04:41:20 20.9 20 20.9
003B8455 2019-02-24 04:09:19 20.9 20 21
003B8455 2019-02-24 03:37:14 20.9 20 20.9
003B8455 2019-02-24 03:05:12 21 20 21
003B8455 2019-02-24 02:33:08 20.9 20 20.9
003B8455 2019-02-24 02:01:05 21 20 20.9
003B8455 2019-02-24 01:29:02 21 20 20.9
003B8455 2019-02-24 00:57:00 21 19 20.9
003B8455 2019-02-24 00:25:01 21 19 20.9
003B8455 2019-02-23 23:52:55 21 19 21
003B8455 2019-02-23 23:20:55 21 19 21
003B8455 2019-02-23 22:48:48 21.1 19 21
003B8455 2019-02-23 22:16:10 21.1 19 21
003B8455 2019-02-23 21:44:07 21.1 19 21
003B8455 2019-02-23 21:12:03 21.2 18 21
003B8455 2019-02-23 20:40:00 21.2 18 19.5
003B8455 2019-02-23 20:07:56 21.2 18 19.6
003B8455 2019-02-23 19:35:53 21.2 18 19.7
003B8455 2019-02-23 19:03:50 21.2 17 19.8
003B8455 2019-02-23 18:31:52 21.2 17 19.8
003B8455 2019-02-23 17:59:46 21.2 17 19.9
003B8455 2019-02-23 17:27:43 21.2 16 19.9
003B8455 2019-02-23 16:55:41 21.2 16 19.8
003B8455 2019-02-23 16:23:38 21.2 16 17.8
003B8455 2019-02-23 15:19:29 21 16 17.7
003B8455 2019-02-23 14:47:25 20.9 16 17.5
003B8455 2019-02-23 14:15:26 20.9 15 17.6
003B8455 2019-02-23 13:43:19 20.9 15 17.5
003B8455 2019-02-23 13:11:19 20.9 15 17.6
003B8455 2019-02-23 12:39:14 20.9 15 17.8
003B8455 2019-02-23 12:07:12 20.8 15 17.7
003B8455 2019-02-23 11:35:09 20.9 15 17.8
003B8455 2019-02-23 11:03:06 20.9 15 17.6
003B8455 2019-02-23 10:31:04 20.9 14 17.7
003B8455 2019-02-23 09:59:03 20.8 14 17.6
003B8455 2019-02-23 09:26:59 20.8 14 17.6
003B8455 2019-02-23 08:54:57 20.8 14 17.4
003B8455 2019-02-23 08:22:51 20.8 14 17.5
003B8455 2019-02-23 07:50:48 20.9 14 17.5
003B8455 2019-02-23 07:18:48 20.8 13 17.5
003B8455 2019-02-23 06:46:46 20.8 13 17.6
003B8455 2019-02-23 06:14:41 20.9 13 17.6
003B8455 2019-02-23 05:42:38 20.8 13 17.4
003B8455 2019-02-23 05:10:36 20.8 13 17.3
003B8455 2019-02-23 04:38:33 20.9 13 17.3
003B8455 2019-02-23 04:06:30 20.8 13 17.3
003B8455 2019-02-23 03:34:31 20.8 12 17.2
003B8455 2019-02-23 03:02:27 20.9 12 17.2
003B8455 2019-02-23 02:30:24 20.9 12 17.1
003B8455 2019-02-23 01:58:21 20.9 12 17.1
003B8455 2019-02-23 01:26:19 20.9 12 17.1
003B8455 2019-02-23 00:54:19 20.9 12 17
003B8455 2019-02-23 00:22:16 21 12 17.1
003B8455 2019-02-22 23:50:16 21 12 17
003B8455 2019-02-22 23:18:12 21 12 16.7
003B8455 2019-02-22 22:46:12 21 12 16.9
003B8455 2019-02-22 22:14:10 21 12 16.9
003B8455 2019-02-22 21:42:08 21 12 17.1
003B8455 2019-02-22 21:10:04 21.1 12 16.9
003B8455 2019-02-22 20:38:05 21.1 12 16.9
003B8455 2019-02-22 20:06:01 21.2 12 16.8
003B8455 2019-02-22 19:33:26 21.2 12 17.2
003B8455 2019-02-22 19:22:38 21.2 12 17.1
003B8455 2019-02-22 19:11:53 21.2 12 17.3
003B8455 2019-02-22 19:01:08 21.2 12 19.5
003B8455 2019-02-22 18:39:31 21.2 12 19.5
003B8455 2019-02-22 18:28:44 21.2 12 19.6
003B8455 2019-02-22 18:17:57 21.2 12 19.7
003B8455 2019-02-22 18:07:10 21.2 12 19.7
003B8455 2019-02-22 17:56:25 21.2 12 19.6
003B8455 2019-02-22 17:45:36 21.2 12 19.6
003B8455 2019-02-22 17:34:49 21.2 12 19.8
003B8455 2019-02-22 17:24:01 21.2 12 19.8
003B8455 2019-02-22 17:13:14 21.2 12 20.1
003B8455 2019-02-22 17:02:27 21.2 12 20.1
003B8455 2019-02-22 16:51:39 21.2 12 20
003B8455 2019-02-22 16:40:52 21.2 12 20.1
003B8455 2019-02-22 16:30:05 21.2 12 20
003B8455 2019-02-22 16:19:18 21.2 12 20.2
003B8455 2019-02-22 16:08:30 21.1 12 20.2
003B8455 2019-02-22 15:57:43 21.1 12 20.3
003B8455 2019-02-22 15:46:56 21.1 12 20.4
003B8455 2019-02-22 15:36:11 21.1 12 20.3
003B8455 2019-02-22 15:25:22 21 12 20.3
003B8455 2019-02-22 15:14:35 21 12 20.4
003B8455 2019-02-22 15:03:50 21 13 20.3
003B8455 2019-02-22 14:53:01 20.9 13 20.3
003B8455 2019-02-22 14:42:14 20.9 13 20.4
003B8455 2019-02-22 14:31:27 20.9 13 20.3
003B8455 2019-02-22 14:20:40 20.9 13 18.3
003B8455 2019-02-22 14:09:57 20.9 13 18.1
003B8455 2019-02-22 13:59:06 20.8 13 17.9
003B8455 2019-02-22 13:48:23 20.8 13 17.9
003B8455 2019-02-22 13:37:32 20.8 13 17.9
003B8455 2019-02-22 13:26:46 20.8 13 17.9
003B8455 2019-02-22 13:15:59 20.8 13 17.8
003B8455 2019-02-22 13:05:12 20.8 13 17.5
003B8455 2019-02-22 12:54:25 20.8 13 17.3
003B8455 2019-02-22 12:43:38 20.7 13 16.7
003B8455 2019-02-22 12:32:56 20.7 13 16.7
003B8455 2019-02-22 12:22:06 20.7 13 16.7
003B8455 2019-02-22 12:11:20 20.7 13 16.4
003B8455 2019-02-22 12:00:33 20.7 13 16.5
003B8455 2019-02-22 11:49:46 20.7 13 16.1
003B8455 2019-02-22 11:39:00 20.7 13 15.6
003B8455 2019-02-22 11:28:15 20.6 13 15.2
003B8455 2019-02-22 11:17:26 20.6 13 14.9
003B8455 2019-02-22 11:06:43 20.6 13 14.9
003B8455 2019-02-22 10:55:53 20.6 13 15.2
003B8455 2019-02-22 10:33:47 20.6 13 15
003B8455 2019-02-22 10:23:02 20.5 13 15.1
003B8455 2019-02-22 10:12:15 20.5 13 14.6
003B8455 2019-02-22 10:01:29 20.5 13 14.6
003B8455 2019-02-22 09:50:42 20.5 13 15.1
003B8455 2019-02-22 09:39:55 20.5 13 15.2
003B8455 2019-02-22 09:29:08 20.5 13 15
003B8455 2019-02-22 09:18:24 20.5 13 14.8
003B8455 2019-02-22 09:07:33 20.5 13 15.3
003B8455 2019-02-22 08:56:46 20.5 13 15.5
003B8455 2019-02-22 08:45:59 20.5 13 15.6
003B8455 2019-02-22 08:35:13 20.5 13 15.4
003B8455 2019-02-22 08:24:27 20.5 13 15.4
003B8455 2019-02-22 08:13:43 20.5 13 15.4
003B8455 2019-02-22 08:02:55 20.5 13 15.9
003B8455 2019-02-22 07:52:06 20.5 13 15.9
003B8455 2019-02-22 07:41:19 20.6 13 16.2
003B8455 2019-02-22 07:30:32 20.5 13 16.4
003B8455 2019-02-22 07:19:49 20.6 13 16.4
003B8455 2019-02-22 07:08:58 20.5 13 16.6
003B8455 2019-02-22 06:58:12 20.5 13 16.8
003B8455 2019-02-22 06:47:28 20.5 13 19.3
003B8455 2019-02-22 06:36:38 20.6 13 19.4
003B8455 2019-02-22 06:25:53 20.6 13 19.4
003B8455 2019-02-22 06:15:04 20.6 13 19.4
003B8455 2019-02-22 06:04:17 20.6 13 19.2
003B8455 2019-02-22 05:53:32 20.6 13 19.3
003B8455 2019-02-22 05:42:46 20.6 13 19.4
003B8455 2019-02-22 05:31:57 20.6 13 19.3
003B8455 2019-02-22 05:21:10 20.6 13 19.2
003B8455 2019-02-22 05:10:26 20.6 13 19.1
003B8455 2019-02-22 04:59:34 20.6 13 19.2
003B8455 2019-02-22 04:48:48 20.6 13 19.2
003B8455 2019-02-22 04:38:00 20.6 13 19.1
003B8455 2019-02-22 04:27:15 20.6 13 19
003B8455 2019-02-22 04:16:26 20.6 13 19.2
003B8455 2019-02-22 04:05:39 20.6 13 19.3
003B8455 2019-02-22 03:54:52 20.6 13 19.5
003B8455 2019-02-22 03:44:05 20.6 13 19.4
003B8455 2019-02-22 03:33:21 20.6 13 19.2
003B8455 2019-02-22 03:22:31 20.6 13 19.2
003B8455 2019-02-22 03:11:44 20.7 13 19.1
003B8455 2019-02-22 03:00:56 20.6 13 19
003B8455 2019-02-22 02:50:12 20.7 13 19
003B8455 2019-02-22 02:39:22 20.7 13 19.1
003B8455 2019-02-22 02:28:36 20.6 13 19
003B8455 2019-02-22 02:17:48 20.7 13 16.4
003B8455 2019-02-22 02:07:01 20.7 13 16.3
003B8455 2019-02-22 01:56:14 20.7 13 16.2
003B8455 2019-02-22 01:45:27 20.7 13 16.7
003B8455 2019-02-22 01:34:07 20.7 13 17.1
003B8455 2019-02-22 01:23:19 20.7 13 16.9
003B8455 2019-02-22 01:12:34 20.7 13 17.2
003B8455 2019-02-22 01:01:46 20.7 13 17.4
003B8455 2019-02-22 00:51:01 20.7 13 17.6
003B8455 2019-02-22 00:40:12 20.7 13 17.5
003B8455 2019-02-22 00:29:27 20.7 13 17.7
003B8455 2019-02-22 00:18:38 20.7 14 17.5
003B8455 2019-02-22 00:07:53 20.7 13 17.7
003B8455 2019-02-21 23:57:04 20.8 14 17.5
003B8455 2019-02-21 23:46:17 20.7 14 17.4
003B8455 2019-02-21 23:35:31 20.8 13 17.1
003B8455 2019-02-21 23:24:43 20.8 13 17.4
003B8455 2019-02-21 23:13:57 20.8 14 17.7
003B8455 2019-02-21 23:03:10 20.8 13 17.8
003B8455 2019-02-21 22:52:23 20.8 14 17.9
003B8455 2019-02-21 22:41:36 20.8 14 18
003B8455 2019-02-21 22:30:49 20.8 14 18
003B8455 2019-02-21 22:20:02 20.8 14 17.7
003B8455 2019-02-21 22:09:16 20.8 14 17.8
003B8455 2019-02-21 21:58:33 20.9 14 17.6
003B8455 2019-02-21 21:47:44 20.9 14 17.7
003B8455 2019-02-21 21:36:55 20.9 14 17.6
003B8455 2019-02-21 21:26:08 20.9 14 17.3
003B8455 2019-02-21 21:15:20 20.9 14 17.1
003B8455 2019-02-21 21:04:34 20.9 14 17
003B8455 2019-02-21 20:53:47 20.9 14 17.2
003B8455 2019-02-21 20:43:00 20.9 14 17
003B8455 2019-02-21 20:32:13 20.9 14 16.7
003B8455 2019-02-21 20:21:26 21 14 16.6
003B8455 2019-02-21 20:10:39 21 14 19.2
003B8455 2019-02-21 19:59:54 21 14 20.8
003B8455 2019-02-21 19:49:07 21 14 22
003B8455 2019-02-21 19:38:18 21 14 22.9
003B8455 2019-02-21 19:27:30 21 14 23.7
003B8455 2019-02-21 19:16:43 21 14 24.4
003B8455 2019-02-21 19:05:56 21 14 24.4
003B8455 2019-02-21 18:55:08 21.1 14 24.4
003B8455 2019-02-21 18:44:20 21.1 14 24.3
003B8455 2019-02-21 18:33:34 21.1 14 24.3
003B8455 2019-02-21 18:22:47 21.1 14 24.3
003B8455 2019-02-21 18:12:04 21.1 14 24.2
003B8455 2019-02-21 18:01:12 21.2 14 24.2
003B8455 2019-02-21 17:50:25 21.2 14 24.2
003B8455 2019-02-21 17:39:39 21.1 14 24.2
003B8455 2019-02-21 17:28:54 21.1 15 24.2
003B8455 2019-02-21 17:18:05 21.1 15 24.2
003B8455 2019-02-21 17:07:19 21.1 15 24.2
003B8455 2019-02-21 16:56:31 21 15 24.2
003B8455 2019-02-21 16:45:44 21 15 24.2
003B8455 2019-02-21 16:34:27 21 15 24.1
003B8455 2019-02-21 16:02:25 20.8 15 24.1
003B8455 2019-02-21 15:30:23 20.8 15 24.1
003B8455 2019-02-21 13:54:16 20.7 15 23.4
003B8455 2019-02-21 13:22:13 20.7 16 22.6
003B8455 2019-02-21 12:50:12 20.7 16 21.6
003B8455 2019-02-21 12:18:09 20.7 17 20.4
003B8455 2019-02-21 11:46:05 20.7 17 18.5
003B8455 2019-02-21 11:14:01 20.6 17 15.1
003B8455 2019-02-21 10:09:58 20.6 17 14.8
003B8455 2019-02-21 09:37:52 20.7 18 15.5
003B8455 2019-02-21 09:05:51 20.7 18 15.2
003B8455 2019-02-21 08:33:48 20.7 18 15.2
003B8455 2019-02-21 08:01:44 20.7 19 15.7
003B8455 2019-02-21 07:29:43 20.7 19 15.8
003B8455 2019-02-21 06:57:40 20.7 19 15.8
003B8455 2019-02-21 06:25:35 20.7 19 16.1
003B8455 2019-02-21 05:53:33 20.7 19 16.1
003B8455 2019-02-21 05:21:31 20.7 19 16.1
003B8455 2019-02-21 04:49:29 20.7 19 16.1
003B8455 2019-02-21 04:17:27 20.7 20 16.1
003B8455 2019-02-21 03:45:27 20.7 20 16.1
003B8455 2019-02-21 03:13:24 20.7 20 16.2
003B8455 2019-02-21 02:41:22 20.8 20 19.1
003B8455 2019-02-21 02:09:23 20.8 20 20.8
003B8455 2019-02-21 01:37:15 20.8 20 20.8
003B8455 2019-02-21 01:05:17 20.8 20 22
003B8455 2019-02-21 00:33:10 20.8 20 22
003B8455 2019-02-21 00:01:07 20.8 21 23
003B8455 2019-02-20 23:29:05 20.8 21 22.9
003B8455 2019-02-20 22:57:02 20.8 21 23.7
003B8455 2019-02-20 22:25:00 20.8 21 24.3
003B8455 2019-02-20 21:52:58 20.8 21 24.4
003B8455 2019-02-20 21:20:55 20.8 21 24.4
003B8455 2019-02-20 20:48:53 20.8 21 24.4
003B8455 2019-02-20 20:16:50 20.8 21 24.4
003B8455 2019-02-20 19:44:49 20.8 21 24.4
003B8455 2019-02-20 19:12:48 20.9 21 24.5
003B8455 2019-02-20 18:40:48 20.9 21 24.5
003B8455 2019-02-20 18:08:47 20.9 22 24.5
003B8455 2019-02-20 17:36:45 20.9 22 24.5
003B8455 2019-02-20 17:04:42 20.9 22 24.5
003B8455 2019-02-20 16:32:43 20.8 23 24.6
003B8455 2019-02-20 16:00:41 20.9 23 24.6
003B8455 2019-02-20 15:28:40 20.9 23 24.6
003B8455 2019-02-20 14:24:40 20.9 24 24.7